Observation data for Aiken on 05/25/2019      Previous  Date  Next       Current Mesonet Observations  Soil Data  Daily Summary Page  Observations in Plain Language
KAI1 250500Z 15013KT 19/17 A30 RMK A01 T01880167  RH  088%=      5-min Rain = 0
KAI1 250501Z 15013KT 19/17 A30 RMK A01 T01890167  RH  087%=      5-min Rain = 0
KAI1 250502Z 15014KT 19/17 A30 RMK A01 T01890167  RH  087%=      5-min Rain = 0
KAI1 250503Z 15013KT 19/17 A30 RMK A01 T01890167  RH  087%=      5-min Rain = 0
KAI1 250504Z 15012KT 19/17 A30 RMK A01 T01900167  RH  086%=      5-min Rain = 0
KAI1 250505Z 14013KT 19/17 A30 RMK A01 T01900167  RH  086%=      5-min Rain = 0
KAI1 250506Z 15012KT 19/17 A30 RMK A01 T01900167  RH  087%=      5-min Rain = 0
KAI1 250507Z 15012KT 19/17 A30 RMK A01 T01900167  RH  087%=      5-min Rain = 0
KAI1 250508Z 14013KT 19/17 A30 RMK A01 T01890167  RH  087%=      5-min Rain = 0
KAI1 250509Z 14012KT 19/17 A30 RMK A01 T01880167  RH  087%=      5-min Rain = 0
KAI1 250510Z 14013KT 19/17 A30 RMK A01 T01880167  RH  088%=      5-min Rain = 0
KAI1 250511Z 14012KT 19/17 A30 RMK A01 T01880167  RH  088%=      5-min Rain = 0
KAI1 250512Z 14012KT 19/17 A30 RMK A01 T01880167  RH  087%=      5-min Rain = 0
KAI1 250513Z 14012KT 19/17 A30 RMK A01 T01880167  RH  087%=      5-min Rain = 0
KAI1 250514Z 14012KT 19/17 A30 RMK A01 T01880166  RH  087%=      5-min Rain = 0
KAI1 250515Z 14012KT 19/17 A30 RMK A01 T01880167  RH  087%=      5-min Rain = 0
KAI1 250516Z 14012KT 19/17 A30 RMK A01 T01880167  RH  087%=      5-min Rain = 0
KAI1 250517Z 14012KT 19/17 A30 RMK A01 T01880167  RH  088%=      5-min Rain = 0
KAI1 250518Z 15012KT 19/17 A30 RMK A01 T01880167  RH  088%=      5-min Rain = 0
KAI1 250519Z 14012KT 19/17 A30 RMK A01 T01880167  RH  088%=      5-min Rain = 0
KAI1 250520Z 14012KT 19/17 A30 RMK A01 T01870167  RH  088%=      5-min Rain = 0
KAI1 250521Z 14012KT 19/17 A30 RMK A01 T01870166  RH  088%=      5-min Rain = 0
KAI1 250522Z 14012KT 19/17 A30 RMK A01 T01860166  RH  088%=      5-min Rain = 0
KAI1 250523Z 14011KT 19/17 A30 RMK A01 T01860166  RH  089%=      5-min Rain = 0
KAI1 250524Z 14011KT 19/17 A30 RMK A01 T01850166  RH  089%=      5-min Rain = 0
KAI1 250525Z 14011KT 19/17 A30 RMK A01 T01850166  RH  089%=      5-min Rain = 0
KAI1 250526Z 14011KT 18/17 A30 RMK A01 T01840166  RH  089%=      5-min Rain = 0
KAI1 250527Z 14011KT 18/17 A30 RMK A01 T01840166  RH  089%=      5-min Rain = 0
KAI1 250528Z 14012KT 18/17 A30 RMK A01 T01840166  RH  089%=      5-min Rain = 0
KAI1 250529Z 14012KT 18/17 A30 RMK A01 T01840166  RH  089%=      5-min Rain = 0
KAI1 250530Z 14011KT 19/17 A30 RMK A01 T01850166  RH  089%=      5-min Rain = 0
KAI1 250531Z 14011KT 19/17 A30 RMK A01 T01850166  RH  089%=      5-min Rain = 0
KAI1 250532Z 14012KT 19/17 A30 RMK A01 T01850167  RH  089%=      5-min Rain = 0
KAI1 250533Z 14011KT 19/17 A30 RMK A01 T01850166  RH  089%=      5-min Rain = 0
KAI1 250534Z 14012KT 18/17 A30 RMK A01 T01840166  RH  089%=      5-min Rain = 0
KAI1 250535Z 14012KT 18/17 A30 RMK A01 T01840166  RH  089%=      5-min Rain = 0
KAI1 250536Z 14011KT 18/17 A30 RMK A01 T01840166  RH  089%=      5-min Rain = 0
KAI1 250537Z 14011KT 18/17 A30 RMK A01 T01830166  RH  090%=      5-min Rain = 0
KAI1 250538Z 14011KT 18/17 A30 RMK A01 T01830166  RH  090%=      5-min Rain = 0
KAI1 250539Z 14011KT 18/17 A30 RMK A01 T01820166  RH  090%=      5-min Rain = 0
KAI1 250540Z 14011KT 18/17 A30 RMK A01 T01820166  RH  090%=      5-min Rain = 0
KAI1 250541Z 14011KT 18/17 A30 RMK A01 T01820166  RH  090%=      5-min Rain = 0
KAI1 250542Z 14011KT 18/17 A30 RMK A01 T01820166  RH  090%=      5-min Rain = 0
KAI1 250543Z 14011KT 18/17 A30 RMK A01 T01810165  RH  090%=      5-min Rain = 0
KAI1 250544Z 14011KT 18/17 A30 RMK A01 T01810165  RH  090%=      5-min Rain = 0
KAI1 250545Z 14010KT 18/17 A30 RMK A01 T01810165  RH  091%=      5-min Rain = 0
KAI1 250546Z 14010KT 18/17 A30 RMK A01 T01800165  RH  091%=      5-min Rain = 0
KAI1 250547Z 14010KT 18/17 A30 RMK A01 T01800165  RH  091%=      5-min Rain = 0
KAI1 250548Z 14010KT 18/17 A30 RMK A01 T01800165  RH  091%=      5-min Rain = 0
KAI1 250549Z 14010KT 18/16 A30 RMK A01 T01790164  RH  091%=      5-min Rain = 0
KAI1 250550Z 14011KT 18/16 A30 RMK A01 T01790164  RH  091%=      5-min Rain = 0
KAI1 250551Z 13010KT 18/16 A30 RMK A01 T01790164  RH  091%=      5-min Rain = 0
KAI1 250552Z 13010KT 18/16 A30 RMK A01 T01790164  RH  091%=      5-min Rain = 0
KAI1 250553Z 13010KT 18/16 A30 RMK A01 T01790164  RH  091%=      5-min Rain = 0
KAI1 250554Z 13010KT 18/17 A30 RMK A01 T01790165  RH  091%=      5-min Rain = 0
KAI1 250555Z 13010KT 18/16 A30 RMK A01 T01790164  RH  091%=      5-min Rain = 0
KAI1 250556Z 14010KT 18/16 A30 RMK A01 T01790164  RH  091%=      5-min Rain = 0
KAI1 250557Z 13011KT 18/16 A30 RMK A01 T01790164  RH  091%=      5-min Rain = 0
KAI1 250558Z 14010KT 18/17 A30 RMK A01 T01790165  RH  091%=      5-min Rain = 0
KAI1 250559Z 14011KT 18/16 A30 RMK A01 T01780164  RH  091%=      5-min Rain = 0
KAI1 250600Z 13011KT 18/16 A30 RMK A01 T01780164  RH  092%=      5-min Rain = 0
KAI1 250601Z 13010KT 18/16 A30 RMK A01 T01780164  RH  091%=      5-min Rain = 0
KAI1 250602Z 13010KT 18/16 A2999 RMK A01 T01780164  RH  092%=      5-min Rain = 0
KAI1 250603Z 13010KT 18/16 A2999 RMK A01 T01780164  RH  092%=      5-min Rain = 0
KAI1 250604Z 13010KT 18/17 A2999 RMK A01 T01780165  RH  092%=      5-min Rain = 0
KAI1 250605Z 13010KT 18/16 A2999 RMK A01 T01770164  RH  092%=      5-min Rain = 0
KAI1 250606Z 13010KT 18/16 A2999 RMK A01 T01770164  RH  092%=      5-min Rain = 0
KAI1 250607Z 13010KT 18/16 A2999 RMK A01 T01770164  RH  092%=      5-min Rain = 0
KAI1 250608Z 13010KT 18/16 A2999 RMK A01 T01770164  RH  092%=      5-min Rain = 0
KAI1 250609Z 13010KT 18/16 A2999 RMK A01 T01770164  RH  092%=      5-min Rain = 0
KAI1 250610Z 13011KT 18/17 A2999 RMK A01 T01770165  RH  092%=      5-min Rain = 0
KAI1 250611Z 13011KT 18/17 A2999 RMK A01 T01780165  RH  092%=      5-min Rain = 0
KAI1 250612Z 13011KT 18/16 A2999 RMK A01 T01780164  RH  092%=      5-min Rain = 0
KAI1 250613Z 13011KT 18/16 A2999 RMK A01 T01770164  RH  092%=      5-min Rain = 0
KAI1 250614Z 13010KT 18/16 A2999 RMK A01 T01770164  RH  092%=      5-min Rain = 0
KAI1 250615Z 13011KT 18/16 A2999 RMK A01 T01770164  RH  092%=      5-min Rain = 0
KAI1 250616Z 13011KT 18/16 A2999 RMK A01 T01770164  RH  092%=      5-min Rain = 0
KAI1 250617Z 13011KT 18/16 A2999 RMK A01 T01760164  RH  092%=      5-min Rain = 0
KAI1 250618Z 14011KT 18/16 A2999 RMK A01 T01760164  RH  093%=      5-min Rain = 0
KAI1 250619Z 14010KT 18/16 A2999 RMK A01 T01760164  RH  093%=      5-min Rain = 0
KAI1 250620Z 13011KT 18/16 A2999 RMK A01 T01760164  RH  093%=      5-min Rain = 0
KAI1 250621Z 13012KT 18/16 A2999 RMK A01 T01760164  RH  093%=      5-min Rain = 0
KAI1 250622Z 13013KT 18/16 A2999 RMK A01 T01760164  RH  093%=      5-min Rain = 0
KAI1 250623Z 13013KT 18/16 A2999 RMK A01 T01750164  RH  093%=      5-min Rain = 0
KAI1 250624Z 13013KT 18/16 A2999 RMK A01 T01750164  RH  093%=      5-min Rain = 0
KAI1 250625Z 13013KT 18/16 A2999 RMK A01 T01750164  RH  093%=      5-min Rain = 0
KAI1 250626Z 12013KT 18/16 A2999 RMK A01 T01750163  RH  093%=      5-min Rain = 0
KAI1 250627Z 13012KT 18/16 A2999 RMK A01 T01760163  RH  093%=      5-min Rain = 0
KAI1 250628Z 13014KT 18/16 A2999 RMK A01 T01750163  RH  093%=      5-min Rain = 0
KAI1 250629Z 13014KT 18/16 A2999 RMK A01 T01750163  RH  092%=      5-min Rain = 0
KAI1 250630Z 13014KT 18/16 A2999 RMK A01 T01760163  RH  092%=      5-min Rain = 0
KAI1 250631Z 13014KT 18/16 A2999 RMK A01 T01760163  RH  092%=      5-min Rain = 0
KAI1 250632Z 13014KT 18/16 A2999 RMK A01 T01760163  RH  092%=      5-min Rain = 0
KAI1 250633Z 13015KT 18/16 A2999 RMK A01 T01760163  RH  092%=      5-min Rain = 0
KAI1 250634Z 13015KT 18/16 A2999 RMK A01 T01760163  RH  092%=      5-min Rain = 0
KAI1 250635Z 13013KT 18/16 A2999 RMK A01 T01760163  RH  092%=      5-min Rain = 0
KAI1 250636Z 13014KT 18/16 A2998 RMK A01 T01750163  RH  092%=      5-min Rain = 0
KAI1 250637Z 13012KT 18/16 A2998 RMK A01 T01750162  RH  092%=      5-min Rain = 0
KAI1 250638Z 13013KT 17/16 A2998 RMK A01 T01740162  RH  093%=      5-min Rain = 0
KAI1 250639Z 13012KT 17/16 A2998 RMK A01 T01740162  RH  093%=      5-min Rain = 0
KAI1 250640Z 13013KT 17/16 A2998 RMK A01 T01730162  RH  093%=      5-min Rain = 0
KAI1 250641Z 13012KT 17/16 A2998 RMK A01 T01730162  RH  093%=      5-min Rain = 0
KAI1 250642Z 13013KT 17/16 A2998 RMK A01 T01730162  RH  093%=      5-min Rain = 0
KAI1 250643Z 13013KT 17/16 A2998 RMK A01 T01730162  RH  093%=      5-min Rain = 0
KAI1 250644Z 13014KT 17/16 A2998 RMK A01 T01730162  RH  093%=      5-min Rain = 0
KAI1 250645Z 13012KT 17/16 A2998 RMK A01 T01730162  RH  093%=      5-min Rain = 0
KAI1 250646Z 13014KT 17/16 A2998 RMK A01 T01720161  RH  093%=      5-min Rain = 0
KAI1 250647Z 13013KT 17/16 A2998 RMK A01 T01720161  RH  093%=      5-min Rain = 0
KAI1 250648Z 13013KT 17/16 A2998 RMK A01 T01720162  RH  093%=      5-min Rain = 0
KAI1 250649Z 13013KT 17/16 A2998 RMK A01 T01720161  RH  093%=      5-min Rain = 0
KAI1 250650Z 13013KT 17/16 A2998 RMK A01 T01720161  RH  093%=      5-min Rain = 0
KAI1 250651Z 13012KT 17/16 A2998 RMK A01 T01720162  RH  094%=      5-min Rain = 0
KAI1 250652Z 13013KT 17/16 A2998 RMK A01 T01720161  RH  093%=      5-min Rain = 0
KAI1 250653Z 13013KT 17/16 A2998 RMK A01 T01720161  RH  094%=      5-min Rain = 0
KAI1 250654Z 13013KT 17/16 A2998 RMK A01 T01710161  RH  094%=      5-min Rain = 0
KAI1 250655Z 13013KT 17/16 A2998 RMK A01 T01710161  RH  094%=      5-min Rain = 0
KAI1 250656Z 13013KT 17/16 A2998 RMK A01 T01710161  RH  094%=      5-min Rain = 0
KAI1 250657Z 13012KT 17/16 A2998 RMK A01 T01710161  RH  094%=      5-min Rain = 0
KAI1 250658Z 13013KT 17/16 A2998 RMK A01 T01700161  RH  094%=      5-min Rain = 0
KAI1 250659Z 13013KT 17/16 A2998 RMK A01 T01710161  RH  094%=      5-min Rain = 0
KAI1 250700Z 13013KT 17/16 A2998 RMK A01 T01700161  RH  094%=      5-min Rain = 0
KAI1 250701Z 13012KT 17/16 A2998 RMK A01 T01700161  RH  094%=      5-min Rain = 0
KAI1 250702Z 13012KT 17/16 A2998 RMK A01 T01700160  RH  094%=      5-min Rain = 0
KAI1 250703Z 13013KT 17/16 A2998 RMK A01 T01700160  RH  094%=      5-min Rain = 0
KAI1 250704Z 13013KT 17/16 A2998 RMK A01 T01700160  RH  094%=      5-min Rain = 0
KAI1 250705Z 13012KT 17/16 A2998 RMK A01 T01700160  RH  094%=      5-min Rain = 0
KAI1 250706Z 13012KT 17/16 A2998 RMK A01 T01700160  RH  094%=      5-min Rain = 0
KAI1 250707Z 13012KT 17/16 A2998 RMK A01 T01690160  RH  094%=      5-min Rain = 0
KAI1 250708Z 13011KT 17/16 A2998 RMK A01 T01690160  RH  094%=      5-min Rain = 0
KAI1 250709Z 13012KT 17/16 A2998 RMK A01 T01690160  RH  094%=      5-min Rain = 0
KAI1 250710Z 13011KT 17/16 A2998 RMK A01 T01690160  RH  095%=      5-min Rain = 0
KAI1 250711Z 13011KT 17/16 A2998 RMK A01 T01690160  RH  095%=      5-min Rain = 0
KAI1 250712Z 13011KT 17/16 A2998 RMK A01 T01690160  RH  095%=      5-min Rain = 0
KAI1 250713Z 13011KT 17/16 A2998 RMK A01 T01690160  RH  095%=      5-min Rain = 0
KAI1 250714Z 13011KT 17/16 A2998 RMK A01 T01690160  RH  095%=      5-min Rain = 0
KAI1 250715Z 13012KT 17/16 A2998 RMK A01 T01690161  RH  095%=      5-min Rain = 0
KAI1 250716Z 13011KT 17/16 A2998 RMK A01 T01690161  RH  095%=      5-min Rain = 0
KAI1 250717Z 13011KT 17/16 A2998 RMK A01 T01690161  RH  095%=      5-min Rain = 0
KAI1 250718Z 13011KT 17/16 A2998 RMK A01 T01690161  RH  095%=      5-min Rain = 0
KAI1 250719Z 13011KT 17/16 A2998 RMK A01 T01690162  RH  095%=      5-min Rain = 0
KAI1 250720Z 14012KT 17/16 A2998 RMK A01 T01690162  RH  095%=      5-min Rain = 0
KAI1 250721Z 14013KT 17/16 A2998 RMK A01 T01700162  RH  095%=      5-min Rain = 0
KAI1 250722Z 14012KT 17/16 A2998 RMK A01 T01700163  RH  095%=      5-min Rain = 0
KAI1 250723Z 13013KT 17/16 A2998 RMK A01 T01700163  RH  095%=      5-min Rain = 0
KAI1 250724Z 14013KT 17/16 A2998 RMK A01 T01700163  RH  095%=      5-min Rain = 0
KAI1 250725Z 14013KT 17/16 A2998 RMK A01 T01700163  RH  095%=      5-min Rain = 0
KAI1 250726Z 13013KT 17/16 A2998 RMK A01 T01710163  RH  095%=      5-min Rain = 0
KAI1 250727Z 14011KT 17/16 A2998 RMK A01 T01700163  RH  095%=      5-min Rain = 0
KAI1 250728Z 14013KT 17/16 A2998 RMK A01 T01710163  RH  095%=      5-min Rain = 0
KAI1 250729Z 13012KT 17/16 A2998 RMK A01 T01700163  RH  096%=      5-min Rain = 0
KAI1 250730Z 14012KT 17/16 A2998 RMK A01 T01710164  RH  096%=      5-min Rain = 0
KAI1 250731Z 14012KT 17/16 A2998 RMK A01 T01700163  RH  096%=      5-min Rain = 0
KAI1 250732Z 13012KT 17/16 A2998 RMK A01 T01710164  RH  096%=      5-min Rain = 0
KAI1 250733Z 14013KT 17/16 A2998 RMK A01 T01710164  RH  096%=      5-min Rain = 0
KAI1 250734Z 14012KT 17/16 A2998 RMK A01 T01710164  RH  096%=      5-min Rain = 0
KAI1 250735Z 14011KT 17/17 A2998 RMK A01 T01710165  RH  096%=      5-min Rain = 0
KAI1 250736Z 14011KT 17/17 A2998 RMK A01 T01710165  RH  096%=      5-min Rain = 0
KAI1 250737Z 14012KT 17/17 A2998 RMK A01 T01710165  RH  096%=      5-min Rain = 0
KAI1 250738Z 14012KT 17/17 A2998 RMK A01 T01710165  RH  096%=      5-min Rain = 0
KAI1 250739Z 14012KT 17/17 A2998 RMK A01 T01710165  RH  096%=      5-min Rain = 0
KAI1 250740Z 14012KT 17/17 A2998 RMK A01 T01710166  RH  096%=      5-min Rain = 0
KAI1 250741Z 14012KT 17/17 A2998 RMK A01 T01710166  RH  096%=      5-min Rain = 0
KAI1 250742Z 14012KT 17/17 A2998 RMK A01 T01720166  RH  096%=      5-min Rain = 0
KAI1 250743Z 14011KT 17/17 A2998 RMK A01 T01720166  RH  096%=      5-min Rain = 0
KAI1 250744Z 14012KT 17/17 A2998 RMK A01 T01710166  RH  096%=      5-min Rain = 0
KAI1 250745Z 14011KT 17/17 A2998 RMK A01 T01710166  RH  097%=      5-min Rain = 0
KAI1 250746Z 14013KT 17/17 A2998 RMK A01 T01720166  RH  097%=      5-min Rain = 0
KAI1 250747Z 14012KT 17/17 A2998 RMK A01 T01710166  RH  097%=      5-min Rain = 0
KAI1 250748Z 14012KT 17/17 A2998 RMK A01 T01710166  RH  097%=      5-min Rain = 0
KAI1 250749Z 14012KT 17/17 A2998 RMK A01 T01710166  RH  097%=      5-min Rain = 0
KAI1 250750Z 14012KT 17/17 A2998 RMK A01 T01720167  RH  097%=      5-min Rain = 0
KAI1 250751Z 14013KT 17/17 A2998 RMK A01 T01710167  RH  097%=      5-min Rain = 0
KAI1 250752Z 14012KT 17/17 A2998 RMK A01 T01710167  RH  097%=      5-min Rain = 0
KAI1 250753Z 14012KT 17/17 A2998 RMK A01 T01710167  RH  097%=      5-min Rain = 0
KAI1 250754Z 14012KT 17/17 A2998 RMK A01 T01720167  RH  097%=      5-min Rain = 0
KAI1 250755Z 14014KT 17/17 A2998 RMK A01 T01720167  RH  097%=      5-min Rain = 0
KAI1 250756Z 14012KT 17/17 A2998 RMK A01 T01720168  RH  097%=      5-min Rain = 0
KAI1 250757Z 14012KT 17/17 A2997 RMK A01 T01720168  RH  097%=      5-min Rain = 0
KAI1 250758Z 14013KT 17/17 A2997 RMK A01 T01720168  RH  097%=      5-min Rain = 0
KAI1 250759Z 14012KT 17/17 A2997 RMK A01 T01720168  RH  097%=      5-min Rain = 0
KAI1 250800Z 14011KT 17/17 A2997 RMK A01 T01720168  RH  097%=      5-min Rain = 0
KAI1 250801Z 14011KT 17/17 A2997 RMK A01 T01720168  RH  097%=      5-min Rain = 0
KAI1 250802Z 13011KT 17/17 A2997 RMK A01 T01720168  RH  097%=      5-min Rain = 0
KAI1 250803Z 14011KT 17/17 A2997 RMK A01 T01720168  RH  098%=      5-min Rain = 0
KAI1 250804Z 14011KT 17/17 A2997 RMK A01 T01720168  RH  098%=      5-min Rain = 0
KAI1 250805Z 14012KT 17/17 A2997 RMK A01 T01710168  RH  098%=      5-min Rain = 0
KAI1 250806Z 14013KT 17/17 A2997 RMK A01 T01710168  RH  098%=      5-min Rain = 0
KAI1 250807Z 14012KT 17/17 A2997 RMK A01 T01710168  RH  098%=      5-min Rain = 0
KAI1 250808Z 14012KT 17/17 A2997 RMK A01 T01720168  RH  098%=      5-min Rain = 0
KAI1 250809Z 14013KT 17/17 A2997 RMK A01 T01710168  RH  098%=      5-min Rain = 0
KAI1 250810Z 14012KT 17/17 A2997 RMK A01 T01710168  RH  098%=      5-min Rain = 0
KAI1 250811Z 14011KT 17/17 A2997 RMK A01 T01710168  RH  098%=      5-min Rain = 0
KAI1 250812Z 14012KT 17/17 A2997 RMK A01 T01710168  RH  098%=      5-min Rain = 0
KAI1 250813Z 14013KT 17/17 A2997 RMK A01 T01710168  RH  098%=      5-min Rain = 0
KAI1 250814Z 14012KT 17/17 A2997 RMK A01 T01720169  RH  098%=      5-min Rain = 0
KAI1 250815Z 14013KT 17/17 A2997 RMK A01 T01720169  RH  098%=      5-min Rain = 0
KAI1 250816Z 14012KT 17/17 A2997 RMK A01 T01720169  RH  098%=      5-min Rain = 0
KAI1 250817Z 14012KT 17/17 A2997 RMK A01 T01720170  RH  098%=      5-min Rain = 0
KAI1 250818Z 14013KT 17/17 A2997 RMK A01 T01720170  RH  098%=      5-min Rain = 0
KAI1 250819Z 14015KT 17/17 A2997 RMK A01 T01720170  RH  098%=      5-min Rain = 0
KAI1 250820Z 14015KT 17/17 A2997 RMK A01 T01730170  RH  098%=      5-min Rain = 0
KAI1 250821Z 15016KT 17/17 A2997 RMK A01 T01730170  RH  098%=      5-min Rain = 0
KAI1 250822Z 14015KT 17/17 A2997 RMK A01 T01730171  RH  098%=      5-min Rain = 0
KAI1 250823Z 14016KT 17/17 A2997 RMK A01 T01730171  RH  098%=      5-min Rain = 0
KAI1 250824Z 14016KT 17/17 A2997 RMK A01 T01730171  RH  098%=      5-min Rain = 0
KAI1 250825Z 14014KT 17/17 A2997 RMK A01 T01730171  RH  098%=      5-min Rain = 0
KAI1 250826Z 14015KT 17/17 A2997 RMK A01 T01730171  RH  098%=      5-min Rain = 0
KAI1 250827Z 14015KT 17/17 A2997 RMK A01 T01730171  RH  099%=      5-min Rain = 0
KAI1 250828Z 15016KT 17/17 A2997 RMK A01 T01730171  RH  099%=      5-min Rain = 0
KAI1 250829Z 14015KT 17/17 A2997 RMK A01 T01730171  RH  099%=      5-min Rain = 0
KAI1 250830Z 14015KT 17/17 A2997 RMK A01 T01730171  RH  099%=      5-min Rain = 0
KAI1 250831Z 14014KT 17/17 A2997 RMK A01 T01730171  RH  099%=      5-min Rain = 0
KAI1 250832Z 14015KT 17/17 A2997 RMK A01 T01730171  RH  099%=      5-min Rain = 0
KAI1 250833Z 14015KT 17/17 A2997 RMK A01 T01730171  RH  099%=      5-min Rain = 0
KAI1 250834Z 15014KT 17/17 A2997 RMK A01 T01730171  RH  099%=      5-min Rain = 0
KAI1 250835Z 14014KT 17/17 A2997 RMK A01 T01730171  RH  099%=      5-min Rain = 0
KAI1 250836Z 14015KT 17/17 A2997 RMK A01 T01740172  RH  099%=      5-min Rain = 0
KAI1 250837Z 15015KT 17/17 A2997 RMK A01 T01730172  RH  099%=      5-min Rain = 0
KAI1 250838Z 15014KT 17/17 A2997 RMK A01 T01730172  RH  099%=      5-min Rain = 0
KAI1 250839Z 15016KT 17/17 A2997 RMK A01 T01730172  RH  099%=      5-min Rain = 0
KAI1 250840Z 14015KT 17/17 A2997 RMK A01 T01730172  RH  099%=      5-min Rain = 0
KAI1 250841Z 15013KT 17/17 A2997 RMK A01 T01730172  RH  099%=      5-min Rain = 0
KAI1 250842Z 15014KT 17/17 A2997 RMK A01 T01730172  RH  099%=      5-min Rain = 0
KAI1 250843Z 14015KT 17/17 A2997 RMK A01 T01730172  RH  099%=      5-min Rain = 0
KAI1 250844Z 15013KT 17/17 A2997 RMK A01 T01730172  RH  099%=      5-min Rain = 0
KAI1 250845Z 15017KT 17/17 A2997 RMK A01 T01730172  RH  099%=      5-min Rain = 0
KAI1 250846Z 15015KT 17/17 A2997 RMK A01 T01740172  RH  099%=      5-min Rain = 0
KAI1 250847Z 15013KT 17/17 A2997 RMK A01 T01740173  RH  099%=      5-min Rain = 0
KAI1 250848Z 15014KT 17/17 A2997 RMK A01 T01740172  RH  099%=      5-min Rain = 0
KAI1 250849Z 15014KT 17/17 A2997 RMK A01 T01740172  RH  099%=      5-min Rain = 0
KAI1 250850Z 15013KT 17/17 A2997 RMK A01 T01740172  RH  099%=      5-min Rain = 0
KAI1 250851Z 15013KT 17/17 A2997 RMK A01 T01740173  RH  099%=      5-min Rain = 0
KAI1 250852Z 15015KT 17/17 A2997 RMK A01 T01740173  RH  099%=      5-min Rain = 0
KAI1 250853Z 15013KT 17/17 A2997 RMK A01 T01740173  RH  099%=      5-min Rain = 0
KAI1 250854Z 15013KT 17/17 A2997 RMK A01 T01740173  RH  099%=      5-min Rain = 0
KAI1 250855Z 15013KT 17/17 A2997 RMK A01 T01740173  RH  099%=      5-min Rain = 0
KAI1 250856Z 15013KT 17/17 A2997 RMK A01 T01740173  RH  099%=      5-min Rain = 0
KAI1 250857Z 15013KT 17/17 A2997 RMK A01 T01740173  RH  099%=      5-min Rain = 0
KAI1 250858Z 15014KT 17/17 A2997 RMK A01 T01740173  RH  099%=      5-min Rain = 0
KAI1 250859Z 15014KT 18/17 A2997 RMK A01 T01750173  RH  099%=      5-min Rain = 0
KAI1 250900Z 15013KT 18/17 A2997 RMK A01 T01750174  RH  099%=      5-min Rain = 0
KAI1 250901Z 15013KT 18/17 A2997 RMK A01 T01750174  RH  099%=      5-min Rain = 0
KAI1 250902Z 15012KT 18/17 A2997 RMK A01 T01750174  RH  099%=      5-min Rain = 0
KAI1 250903Z 15011KT 17/17 A2997 RMK A01 T01740173  RH  099%=      5-min Rain = 0
KAI1 250904Z 15011KT 18/17 A2997 RMK A01 T01750174  RH  099%=      5-min Rain = 0
KAI1 250905Z 15012KT 18/17 A2997 RMK A01 T01750174  RH  099%=      5-min Rain = 0
KAI1 250906Z 15013KT 18/17 A2997 RMK A01 T01750174  RH  099%=      5-min Rain = 0
KAI1 250907Z 15012KT 18/17 A2997 RMK A01 T01750174  RH  099%=      5-min Rain = 0
KAI1 250908Z 15011KT 18/17 A2997 RMK A01 T01750174  RH  099%=      5-min Rain = 0
KAI1 250909Z 15011KT 18/17 A2997 RMK A01 T01750174  RH  099%=      5-min Rain = 0
KAI1 250910Z 15012KT 18/17 A2997 RMK A01 T01750174  RH  099%=      5-min Rain = 0
KAI1 250911Z 16014KT 18/17 A2997 RMK A01 T01750174  RH  099%=      5-min Rain = 0
KAI1 250912Z 15014KT 18/18 A2997 RMK A01 T01760175  RH  099%=      5-min Rain = 0
KAI1 250913Z 15014KT 18/18 A2997 RMK A01 T01760175  RH  099%=      5-min Rain = 0
KAI1 250914Z 15013KT 18/18 A2997 RMK A01 T01760175  RH  099%=      5-min Rain = 0
KAI1 250915Z 15013KT 18/18 A2997 RMK A01 T01760175  RH  099%=      5-min Rain = 0
KAI1 250916Z 15013KT 18/18 A2997 RMK A01 T01760175  RH  099%=      5-min Rain = 0
KAI1 250917Z 15013KT 18/18 A2997 RMK A01 T01760175  RH  099%=      5-min Rain = 0
KAI1 250918Z 15013KT 18/18 A2997 RMK A01 T01760175  RH  099%=      5-min Rain = 0
KAI1 250919Z 15016KT 18/18 A2996 RMK A01 T01760175  RH  099%=      5-min Rain = 0
KAI1 250920Z 15015KT 18/18 A2996 RMK A01 T01770175  RH  099%=      5-min Rain = 0
KAI1 250921Z 15015KT 18/18 A2996 RMK A01 T01760175  RH  099%=      5-min Rain = 0
KAI1 250922Z 15016KT 18/18 A2996 RMK A01 T01770176  RH  099%=      5-min Rain = 0
KAI1 250923Z 16015KT 18/18 A2996 RMK A01 T01770176  RH  099%=      5-min Rain = 0
KAI1 250924Z 15014KT 18/18 A2996 RMK A01 T01770176  RH  099%=      5-min Rain = 0
KAI1 250925Z 16016KT 18/18 A2996 RMK A01 T01770176  RH  099%=      5-min Rain = 0
KAI1 250926Z 15015KT 18/18 A2997 RMK A01 T01770176  RH  099%=      5-min Rain = 0
KAI1 250927Z 16015KT 18/18 A2997 RMK A01 T01770176  RH  099%=      5-min Rain = 0
KAI1 250928Z 15014KT 18/18 A2997 RMK A01 T01770176  RH  099%=      5-min Rain = 0
KAI1 250929Z 15013KT 18/18 A2997 RMK A01 T01770176  RH  099%=      5-min Rain = 0
KAI1 250930Z 15012KT 18/18 A2997 RMK A01 T01770176  RH  099%=      5-min Rain = 0
KAI1 250931Z 16012KT 18/18 A2997 RMK A01 T01770175  RH  099%=      5-min Rain = 0
KAI1 250932Z 15012KT 18/18 A2997 RMK A01 T01770176  RH  099%=      5-min Rain = 0
KAI1 250933Z 16012KT 18/18 A2997 RMK A01 T01770176  RH  099%=      5-min Rain = 0
KAI1 250934Z 15013KT 18/18 A2997 RMK A01 T01770176  RH  099%=      5-min Rain = 0
KAI1 250935Z 15013KT 18/18 A2997 RMK A01 T01770176  RH  099%=      5-min Rain = 0
KAI1 250936Z 15014KT 18/18 A2996 RMK A01 T01770176  RH  099%=      5-min Rain = 0
KAI1 250937Z 16015KT 18/18 A2996 RMK A01 T01770176  RH  099%=      5-min Rain = 0
KAI1 250938Z 15013KT 18/18 A2996 RMK A01 T01770176  RH  099%=      5-min Rain = 0
KAI1 250939Z 15015KT 18/18 A2996 RMK A01 T01770176  RH  099%=      5-min Rain = 0
KAI1 250940Z 15015KT 18/18 A2997 RMK A01 T01770176  RH  099%=      5-min Rain = 0
KAI1 250941Z 15015KT 18/18 A2997 RMK A01 T01770176  RH  099%=      5-min Rain = 0
KAI1 250942Z 15014KT 18/18 A2997 RMK A01 T01770176  RH  099%=      5-min Rain = 0
KAI1 250943Z 15014KT 18/18 A2997 RMK A01 T01770176  RH  099%=      5-min Rain = 0
KAI1 250944Z 15013KT 18/18 A2997 RMK A01 T01770176  RH  099%=      5-min Rain = 0
KAI1 250945Z 16014KT 18/18 A2997 RMK A01 T01770176  RH  099%=      5-min Rain = 0
KAI1 250946Z 15013KT 18/18 A2997 RMK A01 T01770176  RH  099%=      5-min Rain = 0
KAI1 250947Z 16013KT 18/18 A2997 RMK A01 T01770176  RH  099%=      5-min Rain = 0
KAI1 250948Z 15013KT 18/18 A2997 RMK A01 T01770176  RH  099%=      5-min Rain = 0
KAI1 250949Z 16015KT 18/18 A2997 RMK A01 T01780177  RH  099%=      5-min Rain = 0
KAI1 250950Z 16013KT 18/18 A2997 RMK A01 T01770176  RH  099%=      5-min Rain = 0
KAI1 250951Z 16012KT 18/18 A2997 RMK A01 T01770176  RH  099%=      5-min Rain = 0
KAI1 250952Z 16012KT 18/18 A2997 RMK A01 T01770176  RH  099%=      5-min Rain = 0
KAI1 250953Z 16013KT 18/18 A2997 RMK A01 T01780176  RH  099%=      5-min Rain = 0
KAI1 250954Z 16013KT 18/18 A2997 RMK A01 T01780177  RH  099%=      5-min Rain = 0
KAI1 250955Z 16015KT 18/18 A2997 RMK A01 T01780177  RH  099%=      5-min Rain = 0
KAI1 250956Z 16015KT 18/18 A2997 RMK A01 T01780177  RH  099%=      5-min Rain = 0
KAI1 250957Z 16014KT 18/18 A2997 RMK A01 T01780177  RH  099%=      5-min Rain = 0
KAI1 250958Z 16014KT 18/18 A2997 RMK A01 T01780177  RH  099%=      5-min Rain = 0
KAI1 250959Z 16014KT 18/18 A2997 RMK A01 T01780177  RH  099%=      5-min Rain = 0
KAI1 251000Z 16015KT 18/18 A2997 RMK A01 T01790177  RH  099%=      5-min Rain = 0
KAI1 251001Z 16014KT 18/18 A2997 RMK A01 T01790177  RH  099%=      5-min Rain = 0
KAI1 251002Z 16016KT 18/18 A2997 RMK A01 T01790177  RH  099%=      5-min Rain = 0
KAI1 251003Z 16016KT 18/18 A2997 RMK A01 T01790178  RH  099%=      5-min Rain = 0
KAI1 251004Z 16015KT 18/18 A2997 RMK A01 T01790178  RH  099%=      5-min Rain = 0
KAI1 251005Z 16014KT 18/18 A2997 RMK A01 T01790178  RH  099%=      5-min Rain = 0
KAI1 251006Z 16015KT 18/18 A2997 RMK A01 T01790178  RH  099%=      5-min Rain = 0
KAI1 251007Z 16016KT 18/18 A2997 RMK A01 T01790177  RH  099%=      5-min Rain = 0
KAI1 251008Z 16016KT 18/18 A2997 RMK A01 T01790178  RH  099%=      5-min Rain = 0
KAI1 251009Z 16016KT 18/18 A2997 RMK A01 T01790178  RH  099%=      5-min Rain = 0
KAI1 251010Z 16015KT 18/18 A2997 RMK A01 T01790178  RH  099%=      5-min Rain = 0
KAI1 251011Z 16016KT 18/18 A2997 RMK A01 T01790177  RH  099%=      5-min Rain = 0
KAI1 251012Z 16015KT 18/18 A2997 RMK A01 T01790178  RH  099%=      5-min Rain = 0
KAI1 251013Z 16016KT 18/18 A2997 RMK A01 T01790178  RH  099%=      5-min Rain = 0
KAI1 251014Z 16015KT 18/18 A2997 RMK A01 T01790178  RH  099%=      5-min Rain = 0
KAI1 251015Z 16015KT 18/18 A2997 RMK A01 T01790178  RH  099%=      5-min Rain = 0
KAI1 251016Z 16014KT 18/18 A2997 RMK A01 T01790178  RH  099%=      5-min Rain = 0
KAI1 251017Z 16014KT 18/18 A2997 RMK A01 T01790177  RH  099%=      5-min Rain = 0
KAI1 251018Z 16014KT 18/18 A2997 RMK A01 T01790177  RH  099%=      5-min Rain = 0
KAI1 251019Z 16017KT 18/18 A2997 RMK A01 T01790177  RH  099%=      5-min Rain = 0
KAI1 251020Z 16016KT 18/18 A2997 RMK A01 T01790177  RH  099%=      5-min Rain = 0
KAI1 251021Z 16015KT 18/18 A2997 RMK A01 T01790177  RH  099%=      5-min Rain = 0
KAI1 251022Z 16015KT 18/18 A2998 RMK A01 T01790178  RH  099%=      5-min Rain = 0
KAI1 251023Z 16015KT 18/18 A2998 RMK A01 T01790178  RH  099%=      5-min Rain = 0
KAI1 251024Z 16016KT 18/18 A2998 RMK A01 T01790178  RH  099%=      5-min Rain = 0
KAI1 251025Z 16014KT 18/18 A2998 RMK A01 T01800178  RH  099%=      5-min Rain = 0
KAI1 251026Z 16015KT 18/18 A2998 RMK A01 T01800178  RH  099%=      5-min Rain = 0
KAI1 251027Z 16014KT 18/18 A2998 RMK A01 T01800178  RH  099%=      5-min Rain = 0
KAI1 251028Z 16015KT 18/18 A2998 RMK A01 T01800178  RH  099%=      5-min Rain = 0
KAI1 251029Z 16014KT 18/18 A2998 RMK A01 T01800178  RH  099%=      5-min Rain = 0
KAI1 251030Z 16012KT 18/18 A2998 RMK A01 T01800179  RH  099%=      5-min Rain = 0
KAI1 251031Z 16014KT 18/18 A2998 RMK A01 T01800179  RH  099%=      5-min Rain = 0
KAI1 251032Z 16014KT 18/18 A2998 RMK A01 T01800179  RH  099%=      5-min Rain = 0
KAI1 251033Z 16013KT 18/18 A2999 RMK A01 T01800178  RH  099%=      5-min Rain = 0
KAI1 251034Z 16012KT 18/18 A2999 RMK A01 T01800178  RH  099%=      5-min Rain = 0
KAI1 251035Z 16013KT 18/18 A2999 RMK A01 T01800178  RH  099%=      5-min Rain = 0
KAI1 251036Z 16013KT 18/18 A2998 RMK A01 T01800178  RH  099%=      5-min Rain = 0
KAI1 251037Z 16013KT 18/18 A2998 RMK A01 T01800178  RH  099%=      5-min Rain = 0
KAI1 251038Z 16014KT 18/18 A2998 RMK A01 T01800178  RH  099%=      5-min Rain = 0
KAI1 251039Z 16013KT 18/18 A2998 RMK A01 T01800178  RH  099%=      5-min Rain = 0
KAI1 251040Z 15014KT 18/18 A2998 RMK A01 T01800178  RH  099%=      5-min Rain = 0
KAI1 251041Z 15015KT 18/18 A2998 RMK A01 T01800179  RH  099%=      5-min Rain = 0
KAI1 251042Z 15014KT 18/18 A2998 RMK A01 T01800178  RH  099%=      5-min Rain = 0
KAI1 251043Z 15013KT 18/18 A2998 RMK A01 T01810178  RH  099%=      5-min Rain = 0
KAI1 251044Z 16012KT 18/18 A2998 RMK A01 T01810179  RH  099%=      5-min Rain = 0
KAI1 251045Z 16013KT 18/18 A2998 RMK A01 T01810178  RH  099%=      5-min Rain = 0
KAI1 251046Z 16011KT 18/18 A2998 RMK A01 T01810178  RH  099%=      5-min Rain = 0
KAI1 251047Z 16012KT 18/18 A2998 RMK A01 T01800178  RH  099%=      5-min Rain = 0
KAI1 251048Z 16014KT 18/18 A2998 RMK A01 T01810178  RH  098%=      5-min Rain = 0
KAI1 251049Z 16012KT 18/18 A2998 RMK A01 T01810178  RH  098%=      5-min Rain = 0
KAI1 251050Z 16012KT 18/18 A2998 RMK A01 T01800178  RH  098%=      5-min Rain = 0
KAI1 251051Z 16012KT 18/18 A2998 RMK A01 T01800178  RH  098%=      5-min Rain = 0
KAI1 251052Z 16012KT 18/18 A2998 RMK A01 T01810178  RH  098%=      5-min Rain = 0
KAI1 251053Z 15011KT 18/18 A2998 RMK A01 T01810178  RH  098%=      5-min Rain = 0
KAI1 251054Z 16014KT 18/18 A2998 RMK A01 T01800178  RH  098%=      5-min Rain = 0
KAI1 251055Z 16013KT 18/18 A2998 RMK A01 T01810178  RH  098%=      5-min Rain = 0
KAI1 251056Z 16014KT 18/18 A2999 RMK A01 T01810178  RH  098%=      5-min Rain = 0
KAI1 251057Z 15014KT 18/18 A2998 RMK A01 T01810178  RH  098%=      5-min Rain = 0
KAI1 251058Z 15012KT 18/18 A2999 RMK A01 T01810178  RH  098%=      5-min Rain = 0
KAI1 251059Z 16013KT 18/18 A2999 RMK A01 T01810178  RH  098%=      5-min Rain = 0
KAI1 251100Z 15013KT 18/18 A2999 RMK A01 T01810178  RH  098%=      5-min Rain = 0
KAI1 251101Z 16013KT 18/18 A2999 RMK A01 T01810178  RH  098%=      5-min Rain = 0
KAI1 251102Z 16013KT 18/18 A2999 RMK A01 T01810178  RH  098%=      5-min Rain = 0
KAI1 251103Z 15014KT 18/18 A2998 RMK A01 T01810178  RH  098%=      5-min Rain = 0
KAI1 251104Z 16014KT 18/18 A2998 RMK A01 T01810178  RH  098%=      5-min Rain = 0
KAI1 251105Z 15013KT 18/18 A2999 RMK A01 T01810178  RH  098%=      5-min Rain = 0
KAI1 251106Z 15013KT 18/18 A2999 RMK A01 T01810178  RH  098%=      5-min Rain = 0
KAI1 251107Z 16014KT 18/18 A2999 RMK A01 T01810178  RH  098%=      5-min Rain = 0
KAI1 251108Z 15015KT 18/18 A2999 RMK A01 T01810179  RH  098%=      5-min Rain = 0
KAI1 251109Z 16014KT 18/18 A2999 RMK A01 T01810178  RH  098%=      5-min Rain = 0
KAI1 251110Z 15013KT 18/18 A2998 RMK A01 T01810179  RH  098%=      5-min Rain = 0
KAI1 251111Z 16014KT 18/18 A2998 RMK A01 T01810179  RH  098%=      5-min Rain = 0
KAI1 251112Z 16015KT 18/18 A2999 RMK A01 T01810179  RH  098%=      5-min Rain = 0
KAI1 251113Z 16015KT 18/18 A2999 RMK A01 T01810179  RH  098%=      5-min Rain = 0
KAI1 251114Z 16014KT 18/18 A2999 RMK A01 T01810179  RH  098%=      5-min Rain = 0
KAI1 251115Z 16014KT 18/18 A2999 RMK A01 T01820179  RH  098%=      5-min Rain = 0
KAI1 251116Z 16014KT 18/18 A2999 RMK A01 T01810179  RH  098%=      5-min Rain = 0
KAI1 251117Z 16014KT 18/18 A2999 RMK A01 T01820179  RH  098%=      5-min Rain = 0
KAI1 251118Z 16014KT 18/18 A2999 RMK A01 T01810179  RH  098%=      5-min Rain = 0
KAI1 251119Z 15014KT 18/18 A2999 RMK A01 T01820179  RH  098%=      5-min Rain = 0
KAI1 251120Z 16015KT 18/18 A2999 RMK A01 T01810179  RH  098%=      5-min Rain = 0
KAI1 251121Z 16013KT 18/18 A2999 RMK A01 T01820179  RH  098%=      5-min Rain = 0
KAI1 251122Z 16015KT 18/18 A2999 RMK A01 T01810179  RH  098%=      5-min Rain = 0
KAI1 251123Z 15014KT 18/18 A2999 RMK A01 T01820179  RH  098%=      5-min Rain = 0
KAI1 251124Z 16014KT 18/18 A2999 RMK A01 T01810179  RH  098%=      5-min Rain = 0
KAI1 251125Z 16014KT 18/18 A2999 RMK A01 T01820179  RH  098%=      5-min Rain = 0
KAI1 251126Z 15012KT 18/18 A2999 RMK A01 T01810179  RH  098%=      5-min Rain = 0
KAI1 251127Z 16013KT 18/18 A2999 RMK A01 T01820179  RH  098%=      5-min Rain = 0
KAI1 251128Z 16013KT 18/18 A2999 RMK A01 T01810179  RH  098%=      5-min Rain = 0
KAI1 251129Z 16012KT 18/18 A2999 RMK A01 T01810178  RH  098%=      5-min Rain = 0
KAI1 251130Z 16012KT 18/18 A2999 RMK A01 T01810178  RH  098%=      5-min Rain = 0
KAI1 251131Z 16013KT 18/18 A2999 RMK A01 T01810178  RH  098%=      5-min Rain = 0
KAI1 251132Z 16013KT 18/18 A2999 RMK A01 T01810178  RH  098%=      5-min Rain = 0
KAI1 251133Z 16013KT 18/18 A2999 RMK A01 T01810179  RH  098%=      5-min Rain = 0
KAI1 251134Z 16012KT 18/18 A30 RMK A01 T01810178  RH  098%=      5-min Rain = 0
KAI1 251135Z 16011KT 18/18 A30 RMK A01 T01810178  RH  098%=      5-min Rain = 0
KAI1 251136Z 16012KT 18/18 A30 RMK A01 T01810178  RH  098%=      5-min Rain = 0
KAI1 251137Z 16012KT 18/18 A30 RMK A01 T01810178  RH  098%=      5-min Rain = 0
KAI1 251138Z 16013KT 18/18 A30 RMK A01 T01810179  RH  098%=      5-min Rain = 0
KAI1 251139Z 16012KT 18/18 A30 RMK A01 T01810178  RH  098%=      5-min Rain = 0
KAI1 251140Z 16012KT 18/18 A30 RMK A01 T01810178  RH  098%=      5-min Rain = 0
KAI1 251141Z 16011KT 18/18 A30 RMK A01 T01810179  RH  098%=      5-min Rain = 0
KAI1 251142Z 16012KT 18/18 A30 RMK A01 T01810179  RH  098%=      5-min Rain = 0
KAI1 251143Z 16011KT 18/18 A30 RMK A01 T01810178  RH  098%=      5-min Rain = 0
KAI1 251144Z 16011KT 18/18 A30 RMK A01 T01810178  RH  098%=      5-min Rain = 0
KAI1 251145Z 16012KT 18/18 A30 RMK A01 T01810178  RH  098%=      5-min Rain = 0
KAI1 251146Z 16011KT 18/18 A30 RMK A01 T01810178  RH  098%=      5-min Rain = 0
KAI1 251147Z 16011KT 18/18 A30 RMK A01 T01810178  RH  098%=      5-min Rain = 0
KAI1 251148Z 16011KT 18/18 A30 RMK A01 T01810179  RH  098%=      5-min Rain = 0
KAI1 251149Z 16011KT 18/18 A30 RMK A01 T01810178  RH  098%=      5-min Rain = 0
KAI1 251150Z 16011KT 18/18 A30 RMK A01 T01810178  RH  098%=      5-min Rain = 0
KAI1 251151Z 16012KT 18/18 A30 RMK A01 T01810179  RH  098%=      5-min Rain = 0
KAI1 251152Z 16012KT 18/18 A30 RMK A01 T01810179  RH  098%=      5-min Rain = 0
KAI1 251153Z 16012KT 18/18 A30 RMK A01 T01820179  RH  098%=      5-min Rain = 0
KAI1 251154Z 16011KT 18/18 A30 RMK A01 T01810179  RH  098%=      5-min Rain = 0
KAI1 251155Z 16010KT 18/18 A30 RMK A01 T01820179  RH  098%=      5-min Rain = 0
KAI1 251156Z 16011KT 18/18 A30 RMK A01 T01820179  RH  098%=      5-min Rain = 0
KAI1 251157Z 16011KT 18/18 A30 RMK A01 T01820179  RH  098%=      5-min Rain = 0
KAI1 251158Z 16012KT 18/18 A30 RMK A01 T01810179  RH  098%=      5-min Rain = 0
KAI1 251159Z 16011KT 18/18 A30 RMK A01 T01820179  RH  098%=      5-min Rain = 0
KAI1 251200Z 16010KT 18/18 A30 RMK A01 T01820179  RH  098%=      5-min Rain = 0
KAI1 251201Z 16011KT 18/18 A30 RMK A01 T01820179  RH  098%=      5-min Rain = 0
KAI1 251202Z 16012KT 18/18 A30 RMK A01 T01820179  RH  098%=      5-min Rain = 0
KAI1 251203Z 16011KT 18/18 A30 RMK A01 T01820179  RH  098%=      5-min Rain = 0
KAI1 251204Z 16010KT 18/18 A3001 RMK A01 T01820179  RH  098%=      5-min Rain = 0
KAI1 251205Z 16011KT 18/18 A3001 RMK A01 T01820179  RH  098%=      5-min Rain = 0
KAI1 251206Z 16011KT 18/18 A3001 RMK A01 T01820179  RH  098%=      5-min Rain = 0
KAI1 251207Z 16012KT 18/18 A3001 RMK A01 T01820180  RH  098%=      5-min Rain = 0
KAI1 251208Z 16010KT 18/18 A3001 RMK A01 T01820179  RH  098%=      5-min Rain = 0
KAI1 251209Z 16012KT 18/18 A3001 RMK A01 T01820179  RH  098%=      5-min Rain = 0
KAI1 251210Z 16013KT 18/18 A3001 RMK A01 T01820179  RH  098%=      5-min Rain = 0
KAI1 251211Z 16013KT 18/18 A3001 RMK A01 T01820180  RH  098%=      5-min Rain = 0
KAI1 251212Z 16012KT 18/18 A3001 RMK A01 T01830180  RH  098%=      5-min Rain = 0
KAI1 251213Z 16012KT 18/18 A3001 RMK A01 T01830180  RH  098%=      5-min Rain = 0
KAI1 251214Z 16013KT 18/18 A3001 RMK A01 T01830180  RH  098%=      5-min Rain = 0
KAI1 251215Z 16013KT 18/18 A3001 RMK A01 T01830180  RH  098%=      5-min Rain = 0
KAI1 251216Z 15014KT 18/18 A3001 RMK A01 T01830180  RH  098%=      5-min Rain = 0
KAI1 251217Z 16013KT 18/18 A3001 RMK A01 T01830180  RH  098%=      5-min Rain = 0
KAI1 251218Z 16013KT 18/18 A3001 RMK A01 T01830180  RH  098%=      5-min Rain = 0
KAI1 251219Z 16013KT 18/18 A3001 RMK A01 T01830180  RH  098%=      5-min Rain = 0
KAI1 251220Z 16012KT 18/18 A3001 RMK A01 T01830180  RH  098%=      5-min Rain = 0
KAI1 251221Z 16012KT 18/18 A3001 RMK A01 T01830180  RH  098%=      5-min Rain = 0
KAI1 251222Z 16012KT 18/18 A3001 RMK A01 T01830180  RH  098%=      5-min Rain = 0
KAI1 251223Z 16012KT 18/18 A3001 RMK A01 T01830180  RH  098%=      5-min Rain = 0
KAI1 251224Z 16012KT 18/18 A3001 RMK A01 T01830180  RH  098%=      5-min Rain = 0
KAI1 251225Z 16013KT 18/18 A3001 RMK A01 T01830180  RH  098%=      5-min Rain = 0
KAI1 251226Z 16013KT 18/18 A3001 RMK A01 T01830180  RH  098%=      5-min Rain = 0
KAI1 251227Z 16013KT 18/18 A3001 RMK A01 T01840181  RH  098%=      5-min Rain = 0
KAI1 251228Z 16013KT 18/18 A3001 RMK A01 T01840181  RH  098%=      5-min Rain = 0
KAI1 251229Z 16012KT 18/18 A3001 RMK A01 T01840181  RH  098%=      5-min Rain = 0
KAI1 251230Z 16012KT 18/18 A3002 RMK A01 T01840181  RH  098%=      5-min Rain = 0
KAI1 251231Z 16013KT 18/18 A3001 RMK A01 T01840181  RH  098%=      5-min Rain = 0
KAI1 251232Z 16013KT 18/18 A3001 RMK A01 T01840181  RH  098%=      5-min Rain = 0
KAI1 251233Z 16012KT 18/18 A3002 RMK A01 T01840181  RH  098%=      5-min Rain = 0
KAI1 251234Z 16012KT 18/18 A3002 RMK A01 T01840181  RH  098%=      5-min Rain = 0
KAI1 251235Z 16011KT 18/18 A3001 RMK A01 T01840181  RH  098%=      5-min Rain = 0
KAI1 251236Z 16012KT 19/18 A3001 RMK A01 T01850181  RH  098%=      5-min Rain = 0
KAI1 251237Z 17012KT 19/18 A3001 RMK A01 T01850181  RH  098%=      5-min Rain = 0
KAI1 251238Z 17011KT 19/18 A3002 RMK A01 T01850181  RH  098%=      5-min Rain = 0
KAI1 251239Z 17011KT 19/18 A3002 RMK A01 T01850181  RH  098%=      5-min Rain = 0
KAI1 251240Z 17011KT 19/18 A3002 RMK A01 T01850181  RH  098%=      5-min Rain = 0
KAI1 251241Z 17011KT 19/18 A3002 RMK A01 T01850181  RH  098%=      5-min Rain = 0
KAI1 251242Z 17011KT 19/18 A3002 RMK A01 T01850182  RH  098%=      5-min Rain = 0
KAI1 251243Z 17011KT 19/18 A3002 RMK A01 T01850182  RH  098%=      5-min Rain = 0
KAI1 251244Z 17012KT 19/18 A3002 RMK A01 T01850182  RH  098%=      5-min Rain = 0
KAI1 251245Z 17011KT 19/18 A3002 RMK A01 T01850182  RH  098%=      5-min Rain = 0
KAI1 251246Z 17012KT 19/18 A3002 RMK A01 T01860182  RH  098%=      5-min Rain = 0
KAI1 251247Z 17013KT 19/18 A3002 RMK A01 T01860182  RH  098%=      5-min Rain = 0
KAI1 251248Z 17012KT 19/18 A3002 RMK A01 T01860182  RH  098%=      5-min Rain = 0
KAI1 251249Z 17011KT 19/18 A3002 RMK A01 T01860182  RH  098%=      5-min Rain = 0
KAI1 251250Z 17011KT 19/18 A3002 RMK A01 T01860182  RH  098%=      5-min Rain = 0
KAI1 251251Z 17012KT 19/18 A3002 RMK A01 T01860183  RH  098%=      5-min Rain = 0
KAI1 251252Z 17012KT 19/18 A3002 RMK A01 T01860182  RH  098%=      5-min Rain = 0
KAI1 251253Z 17011KT 19/18 A3002 RMK A01 T01870183  RH  098%=      5-min Rain = 0
KAI1 251254Z 17012KT 19/18 A3002 RMK A01 T01870183  RH  098%=      5-min Rain = 0
KAI1 251255Z 17012KT 19/18 A3002 RMK A01 T01870183  RH  098%=      5-min Rain = 0
KAI1 251256Z 17012KT 19/18 A3002 RMK A01 T01870183  RH  098%=      5-min Rain = 0
KAI1 251257Z 17013KT 19/18 A3002 RMK A01 T01870183  RH  098%=      5-min Rain = 0
KAI1 251258Z 17012KT 19/18 A3002 RMK A01 T01870183  RH  098%=      5-min Rain = 0
KAI1 251259Z 17012KT 19/18 A3002 RMK A01 T01870184  RH  098%=      5-min Rain = 0
KAI1 251300Z 17013KT 19/18 A3002 RMK A01 T01870183  RH  098%=      5-min Rain = 0
KAI1 251301Z 17013KT 19/18 A3002 RMK A01 T01870184  RH  098%=      5-min Rain = 0
KAI1 251302Z 17012KT 19/18 A3002 RMK A01 T01880184  RH  098%=      5-min Rain = 0
KAI1 251303Z 17013KT 19/18 A3002 RMK A01 T01880184  RH  098%=      5-min Rain = 0
KAI1 251304Z 17013KT 19/18 A3002 RMK A01 T01880184  RH  098%=      5-min Rain = 0
KAI1 251305Z 17014KT 19/19 A3002 RMK A01 T01880185  RH  098%=      5-min Rain = 0
KAI1 251306Z 17012KT 19/19 A3002 RMK A01 T01890185  RH  098%=      5-min Rain = 0
KAI1 251307Z 17013KT 19/19 A3002 RMK A01 T01890185  RH  098%=      5-min Rain = 0
KAI1 251308Z 17014KT 19/19 A3002 RMK A01 T01890185  RH  098%=      5-min Rain = 0
KAI1 251309Z 18013KT 19/19 A3002 RMK A01 T01890185  RH  097%=      5-min Rain = 0
KAI1 251310Z 17014KT 19/19 A3002 RMK A01 T01890185  RH  097%=      5-min Rain = 0
KAI1 251311Z 17014KT 19/19 A3002 RMK A01 T01890185  RH  097%=      5-min Rain = 0
KAI1 251312Z 18014KT 19/19 A3002 RMK A01 T01900186  RH  097%=      5-min Rain = 0
KAI1 251313Z 18013KT 19/19 A3003 RMK A01 T01900186  RH  097%=      5-min Rain = 0
KAI1 251314Z 18016KT 19/19 A3002 RMK A01 T01900186  RH  098%=      5-min Rain = 0
KAI1 251315Z 17015KT 19/19 A3002 RMK A01 T01900186  RH  097%=      5-min Rain = 0
KAI1 251316Z 18014KT 19/19 A3003 RMK A01 T01900186  RH  097%=      5-min Rain = 0
KAI1 251317Z 17014KT 19/19 A3003 RMK A01 T01900186  RH  097%=      5-min Rain = 0
KAI1 251318Z 17013KT 19/19 A3003 RMK A01 T01910187  RH  097%=      5-min Rain = 0
KAI1 251319Z 17014KT 19/19 A3003 RMK A01 T01910187  RH  097%=      5-min Rain = 0
KAI1 251320Z 17015KT 19/19 A3003 RMK A01 T01910186  RH  097%=      5-min Rain = 0
KAI1 251321Z 18014KT 19/19 A3003 RMK A01 T01910187  RH  097%=      5-min Rain = 0
KAI1 251322Z 17015KT 19/19 A3003 RMK A01 T01910187  RH  097%=      5-min Rain = 0
KAI1 251323Z 17014KT 19/19 A3003 RMK A01 T01910187  RH  097%=      5-min Rain = 0
KAI1 251324Z 17014KT 19/19 A3003 RMK A01 T01910187  RH  097%=      5-min Rain = 0
KAI1 251325Z 17016KT 19/19 A3003 RMK A01 T01910187  RH  097%=      5-min Rain = 0
KAI1 251326Z 17014KT 19/19 A3003 RMK A01 T01910187  RH  097%=      5-min Rain = 0
KAI1 251327Z 17015KT 19/19 A3003 RMK A01 T01910187  RH  097%=      5-min Rain = 0
KAI1 251328Z 17016KT 19/19 A3003 RMK A01 T01910187  RH  097%=      5-min Rain = 0
KAI1 251329Z 17016KT 19/19 A3003 RMK A01 T01920187  RH  097%=      5-min Rain = 0
KAI1 251330Z 17015KT 19/19 A3003 RMK A01 T01920188  RH  097%=      5-min Rain = 0
KAI1 251331Z 17015KT 19/19 A3003 RMK A01 T01920187  RH  097%=      5-min Rain = 0
KAI1 251332Z 17015KT 19/19 A3003 RMK A01 T01910187  RH  097%=      5-min Rain = 0
KAI1 251333Z 17014KT 19/19 A3003 RMK A01 T01920187  RH  097%=      5-min Rain = 0
KAI1 251334Z 17015KT 19/19 A3003 RMK A01 T01920188  RH  097%=      5-min Rain = 0
KAI1 251335Z 17015KT 19/19 A3003 RMK A01 T01920188  RH  097%=      5-min Rain = 0
KAI1 251336Z 17014KT 19/19 A3003 RMK A01 T01920188  RH  097%=      5-min Rain = 0
KAI1 251337Z 17014KT 19/19 A3003 RMK A01 T01920188  RH  097%=      5-min Rain = 0
KAI1 251338Z 17017KT 19/19 A3003 RMK A01 T01930188  RH  097%=      5-min Rain = 0
KAI1 251339Z 17016KT 19/19 A3003 RMK A01 T01930189  RH  097%=      5-min Rain = 0
KAI1 251340Z 17015KT 19/19 A3003 RMK A01 T01930189  RH  097%=      5-min Rain = 0
KAI1 251341Z 17015KT 19/19 A3003 RMK A01 T01930189  RH  097%=      5-min Rain = 0
KAI1 251342Z 17014KT 19/19 A3003 RMK A01 T01930189  RH  097%=      5-min Rain = 0
KAI1 251343Z 17015KT 19/19 A3003 RMK A01 T01940189  RH  097%=      5-min Rain = 0
KAI1 251344Z 17014KT 19/19 A3003 RMK A01 T01940189  RH  097%=      5-min Rain = 0
KAI1 251345Z 17013KT 19/19 A3003 RMK A01 T01940189  RH  097%=      5-min Rain = 0
KAI1 251346Z 17013KT 19/19 A3003 RMK A01 T01940189  RH  097%=      5-min Rain = 0
KAI1 251347Z 17013KT 19/19 A3003 RMK A01 T01940190  RH  097%=      5-min Rain = 0
KAI1 251348Z 17013KT 19/19 A3003 RMK A01 T01940190  RH  097%=      5-min Rain = 0
KAI1 251349Z 17013KT 20/19 A3003 RMK A01 T01950190  RH  097%=      5-min Rain = 0
KAI1 251350Z 17014KT 20/19 A3003 RMK A01 T01950190  RH  097%=      5-min Rain = 0
KAI1 251351Z 17014KT 20/19 A3003 RMK A01 T01950190  RH  097%=      5-min Rain = 0
KAI1 251352Z 17014KT 20/19 A3003 RMK A01 T01950190  RH  097%=      5-min Rain = 0
KAI1 251353Z 17015KT 20/19 A3003 RMK A01 T01960190  RH  097%=      5-min Rain = 0
KAI1 251354Z 18015KT 20/19 A3003 RMK A01 T01960190  RH  096%=      5-min Rain = 0
KAI1 251355Z 18013KT 20/19 A3003 RMK A01 T01960190  RH  096%=      5-min Rain = 0
KAI1 251356Z 17012KT 20/19 A3003 RMK A01 T01960190  RH  097%=      5-min Rain = 0
KAI1 251357Z 18012KT 20/19 A3003 RMK A01 T01960191  RH  097%=      5-min Rain = 0
KAI1 251358Z 17012KT 20/19 A3003 RMK A01 T01960191  RH  097%=      5-min Rain = 0
KAI1 251359Z 17012KT 20/19 A3003 RMK A01 T01960191  RH  097%=      5-min Rain = 0
KAI1 251400Z 17015KT 20/19 A3003 RMK A01 T01960191  RH  097%=      5-min Rain = 0
KAI1 251401Z 17013KT 20/19 A3003 RMK A01 T01960191  RH  096%=      5-min Rain = 0
KAI1 251402Z 18014KT 20/19 A3003 RMK A01 T01960191  RH  097%=      5-min Rain = 0
KAI1 251403Z 17014KT 20/19 A3003 RMK A01 T01960191  RH  097%=      5-min Rain = 0
KAI1 251404Z 17014KT 20/19 A3003 RMK A01 T01960190  RH  097%=      5-min Rain = 0
KAI1 251405Z 17015KT 20/19 A3003 RMK A01 T01960190  RH  096%=      5-min Rain = 0
KAI1 251406Z 17015KT 20/19 A3003 RMK A01 T01970191  RH  096%=      5-min Rain = 0
KAI1 251407Z 17013KT 20/19 A3003 RMK A01 T01970191  RH  096%=      5-min Rain = 0
KAI1 251408Z 17015KT 20/19 A3003 RMK A01 T01970191  RH  096%=      5-min Rain = 0
KAI1 251409Z 17016KT 20/19 A3003 RMK A01 T01970191  RH  096%=      5-min Rain = 0
KAI1 251410Z 17015KT 20/19 A3003 RMK A01 T01970191  RH  096%=      5-min Rain = 0
KAI1 251411Z 17015KT 20/19 A3003 RMK A01 T01970191  RH  097%=      5-min Rain = 0
KAI1 251412Z 17015KT 20/19 A3003 RMK A01 T01970191  RH  097%=      5-min Rain = 0
KAI1 251413Z 17014KT 20/19 A3003 RMK A01 T01970191  RH  097%=      5-min Rain = 0
KAI1 251414Z 17015KT 20/19 A3003 RMK A01 T01970192  RH  097%=      5-min Rain = 0
KAI1 251415Z 17015KT 20/19 A3003 RMK A01 T01970192  RH  097%=      5-min Rain = 0
KAI1 251416Z 17015KT 20/19 A3003 RMK A01 T01970191  RH  097%=      5-min Rain = 0
KAI1 251417Z 17016KT 20/19 A3003 RMK A01 T01970191  RH  097%=      5-min Rain = 0
KAI1 251418Z 17014KT 20/19 A3003 RMK A01 T01970192  RH  097%=      5-min Rain = 0
KAI1 251419Z 17014KT 20/19 A3003 RMK A01 T01970192  RH  097%=      5-min Rain = 0
KAI1 251420Z 17014KT 20/19 A3003 RMK A01 T01970192  RH  097%=      5-min Rain = 0
KAI1 251421Z 17014KT 20/19 A3003 RMK A01 T01970192  RH  097%=      5-min Rain = 0
KAI1 251422Z 17015KT 20/19 A3003 RMK A01 T01970192  RH  097%=      5-min Rain = 0
KAI1 251423Z 17014KT 20/19 A3003 RMK A01 T01970192  RH  097%=      5-min Rain = 0
KAI1 251424Z 17014KT 20/19 A3004 RMK A01 T01970192  RH  097%=      5-min Rain = 0
KAI1 251425Z 17014KT 20/19 A3004 RMK A01 T01970192  RH  097%=      5-min Rain = 0
KAI1 251426Z 16016KT 20/19 A3003 RMK A01 T01970192  RH  097%=      5-min Rain = 0
KAI1 251427Z 17013KT 20/19 A3004 RMK A01 T01970192  RH  097%=      5-min Rain = 0
KAI1 251428Z 17013KT 20/19 A3004 RMK A01 T01970192  RH  097%=      5-min Rain = 0
KAI1 251429Z 17014KT 20/19 A3004 RMK A01 T01970193  RH  097%=      5-min Rain = 0
KAI1 251430Z 17015KT 20/19 A3004 RMK A01 T01970192  RH  097%=      5-min Rain = 0
KAI1 251431Z 17013KT 20/19 A3004 RMK A01 T01970192  RH  097%=      5-min Rain = 0
KAI1 251432Z 17015KT 20/19 A3004 RMK A01 T01970192  RH  097%=      5-min Rain = 0
KAI1 251433Z 17015KT 20/19 A3004 RMK A01 T01980193  RH  097%=      5-min Rain = 0
KAI1 251434Z 17014KT 20/19 A3004 RMK A01 T01970192  RH  097%=      5-min Rain = 0
KAI1 251435Z 17014KT 20/19 A3004 RMK A01 T01980193  RH  097%=      5-min Rain = 0
KAI1 251436Z 17013KT 20/19 A3004 RMK A01 T01980192  RH  097%=      5-min Rain = 0
KAI1 251437Z 17013KT 20/19 A3004 RMK A01 T01980192  RH  097%=      5-min Rain = 0
KAI1 251438Z 17015KT 20/19 A3004 RMK A01 T01980193  RH  097%=      5-min Rain = 0
KAI1 251439Z 17014KT 20/19 A3004 RMK A01 T01980192  RH  097%=      5-min Rain = 0
KAI1 251440Z 17016KT 20/19 A3004 RMK A01 T01980193  RH  097%=      5-min Rain = 0
KAI1 251441Z 17015KT 20/19 A3004 RMK A01 T01980192  RH  096%=      5-min Rain = 0
KAI1 251442Z 17014KT 20/19 A3004 RMK A01 T01980192  RH  096%=      5-min Rain = 0
KAI1 251443Z 17014KT 20/19 A3004 RMK A01 T01980192  RH  096%=      5-min Rain = 0
KAI1 251444Z 17015KT 20/19 A3004 RMK A01 T01980192  RH  096%=      5-min Rain = 0
KAI1 251445Z 17014KT 20/19 A3004 RMK A01 T01980192  RH  096%=      5-min Rain = 0
KAI1 251446Z 17016KT 20/19 A3004 RMK A01 T01980192  RH  096%=      5-min Rain = 0
KAI1 251447Z 17016KT 20/19 A3004 RMK A01 T01980192  RH  096%=      5-min Rain = 0
KAI1 251448Z 17016KT 20/19 A3004 RMK A01 T01980192  RH  096%=      5-min Rain = 0
KAI1 251449Z 18013KT 20/19 A3004 RMK A01 T01980192  RH  096%=      5-min Rain = 0
KAI1 251450Z 17014KT 20/19 A3004 RMK A01 T01980192  RH  096%=      5-min Rain = 0
KAI1 251451Z 17016KT 20/19 A3005 RMK A01 T01980192  RH  096%=      5-min Rain = 0
KAI1 251452Z 17016KT 20/19 A3005 RMK A01 T01980192  RH  096%=      5-min Rain = 0
KAI1 251453Z 18017KT 20/19 A3005 RMK A01 T01980192  RH  096%=      5-min Rain = 0
KAI1 251454Z 17015KT 20/19 A3005 RMK A01 T01980192  RH  096%=      5-min Rain = 0
KAI1 251455Z 17015KT 20/19 A3005 RMK A01 T01980192  RH  096%=      5-min Rain = 0
KAI1 251456Z 17015KT 20/19 A3005 RMK A01 T01980192  RH  096%=      5-min Rain = 0
KAI1 251457Z 17015KT 20/19 A3004 RMK A01 T01980192  RH  096%=      5-min Rain = 0
KAI1 251458Z 18015KT 20/19 A3005 RMK A01 T01980192  RH  096%=      5-min Rain = 0
KAI1 251459Z 17014KT 20/19 A3005 RMK A01 T01980192  RH  096%=      5-min Rain = 0
KAI1 251500Z 17016KT 20/19 A3004 RMK A01 T01980192  RH  096%=      5-min Rain = 0
KAI1 251501Z 17016KT 20/19 A3004 RMK A01 T01980192  RH  096%=      5-min Rain = 0
KAI1 251502Z 17015KT 20/19 A3005 RMK A01 T01980192  RH  096%=      5-min Rain = 0
KAI1 251503Z 17016KT 20/19 A3004 RMK A01 T01980192  RH  096%=      5-min Rain = 0
KAI1 251504Z 17014KT 20/19 A3005 RMK A01 T01990193  RH  096%=      5-min Rain = 0
KAI1 251505Z 17018KT 20/19 A3004 RMK A01 T01990193  RH  096%=      5-min Rain = 0
KAI1 251506Z 17015KT 20/19 A3005 RMK A01 T01990193  RH  096%=      5-min Rain = 0
KAI1 251507Z 17017KT 20/19 A3004 RMK A01 T01990193  RH  096%=      5-min Rain = 0
KAI1 251508Z 17015KT 20/19 A3005 RMK A01 T01990193  RH  096%=      5-min Rain = 0
KAI1 251509Z 17014KT 20/19 A3005 RMK A01 T01990194  RH  096%=      5-min Rain = 0
KAI1 251510Z 17015KT 20/19 A3005 RMK A01 T01990194  RH  097%=      5-min Rain = 0
KAI1 251511Z 17018KT 20/19 A3004 RMK A01 T01990194  RH  096%=      5-min Rain = 0
KAI1 251512Z 17016KT 20/19 A3005 RMK A01 T01990193  RH  096%=      5-min Rain = 0
KAI1 251513Z 17014KT 20/19 A3005 RMK A01 T02000194  RH  096%=      5-min Rain = 0
KAI1 251514Z 17016KT 20/19 A3004 RMK A01 T02000194  RH  096%=      5-min Rain = 0
KAI1 251515Z 18015KT 20/19 A3004 RMK A01 T02000194  RH  096%=      5-min Rain = 0
KAI1 251516Z 18016KT 20/20 A3004 RMK A01 T02000195  RH  096%=      5-min Rain = 0
KAI1 251517Z 17015KT 20/19 A3004 RMK A01 T02000194  RH  096%=      5-min Rain = 0
KAI1 251518Z 17013KT 20/20 A3004 RMK A01 T02010195  RH  096%=      5-min Rain = 0
KAI1 251519Z 17015KT 20/20 A3004 RMK A01 T02010195  RH  096%=      5-min Rain = 0
KAI1 251520Z 17014KT 20/20 A3004 RMK A01 T02010195  RH  096%=      5-min Rain = 0
KAI1 251521Z 17016KT 20/20 A3004 RMK A01 T02010195  RH  096%=      5-min Rain = 0
KAI1 251522Z 17015KT 20/20 A3004 RMK A01 T02010195  RH  096%=      5-min Rain = 0
KAI1 251523Z 17017KT 20/20 A3004 RMK A01 T02010195  RH  096%=      5-min Rain = 0
KAI1 251524Z 18016KT 20/19 A3004 RMK A01 T02010194  RH  096%=      5-min Rain = 0
KAI1 251525Z 17015KT 20/19 A3004 RMK A01 T02010194  RH  096%=      5-min Rain = 0
KAI1 251526Z 17014KT 20/20 A3004 RMK A01 T02020195  RH  096%=      5-min Rain = 0
KAI1 251527Z 17016KT 20/20 A3004 RMK A01 T02020195  RH  096%=      5-min Rain = 0
KAI1 251528Z 17016KT 20/20 A3004 RMK A01 T02020195  RH  096%=      5-min Rain = 0
KAI1 251529Z 17017KT 20/20 A3004 RMK A01 T02020195  RH  096%=      5-min Rain = 0
KAI1 251530Z 17017KT 20/20 A3004 RMK A01 T02020195  RH  096%=      5-min Rain = 0
KAI1 251531Z 17016KT 20/20 A3004 RMK A01 T02020195  RH  096%=      5-min Rain = 0
KAI1 251532Z 17016KT 20/20 A3004 RMK A01 T02030195  RH  095%=      5-min Rain = 0
KAI1 251533Z 17014KT 20/20 A3004 RMK A01 T02030196  RH  096%=      5-min Rain = 0
KAI1 251534Z 17015KT 20/20 A3004 RMK A01 T02040197  RH  096%=      5-min Rain = 0
KAI1 251535Z 17017KT 20/20 A3004 RMK A01 T02040196  RH  095%=      5-min Rain = 0
KAI1 251536Z 17017KT 20/20 A3004 RMK A01 T02040196  RH  095%=      5-min Rain = 0
KAI1 251537Z 17015KT 20/20 A3004 RMK A01 T02040196  RH  095%=      5-min Rain = 0
KAI1 251538Z 17017KT 21/20 A3004 RMK A01 T02050196  RH  095%=      5-min Rain = 0
KAI1 251539Z 17017KT 20/20 A3004 RMK A01 T02040195  RH  095%=      5-min Rain = 0
KAI1 251540Z 17015KT 21/20 A3004 RMK A01 T02050196  RH  095%=      5-min Rain = 0
KAI1 251541Z 17017KT 20/20 A3004 RMK A01 T02040196  RH  095%=      5-min Rain = 0
KAI1 251542Z 17015KT 20/20 A3004 RMK A01 T02040196  RH  095%=      5-min Rain = 0
KAI1 251543Z 17016KT 21/20 A3004 RMK A01 T02050196  RH  095%=      5-min Rain = 0
KAI1 251544Z 18018KT 21/20 A3004 RMK A01 T02050197  RH  095%=      5-min Rain = 0
KAI1 251545Z 17016KT 21/20 A3004 RMK A01 T02050196  RH  095%=      5-min Rain = 0
KAI1 251546Z 17015KT 21/20 A3004 RMK A01 T02050196  RH  095%=      5-min Rain = 0
KAI1 251547Z 17017KT 21/20 A3004 RMK A01 T02050197  RH  095%=      5-min Rain = 0
KAI1 251548Z 17016KT 21/20 A3004 RMK A01 T02050196  RH  095%=      5-min Rain = 0
KAI1 251549Z 17015KT 21/20 A3004 RMK A01 T02050197  RH  095%=      5-min Rain = 0
KAI1 251550Z 17017KT 21/20 A3004 RMK A01 T02050196  RH  095%=      5-min Rain = 0
KAI1 251551Z 17014KT 21/20 A3004 RMK A01 T02050196  RH  095%=      5-min Rain = 0
KAI1 251552Z 17014KT 21/20 A3004 RMK A01 T02050197  RH  095%=      5-min Rain = 0
KAI1 251553Z 17017KT 21/20 A3004 RMK A01 T02050197  RH  095%=      5-min Rain = 0
KAI1 251554Z 17014KT 21/20 A3004 RMK A01 T02050197  RH  095%=      5-min Rain = 0
KAI1 251555Z 16014KT 21/20 A3004 RMK A01 T02060198  RH  095%=      5-min Rain = 0
KAI1 251556Z 16016KT 21/20 A3004 RMK A01 T02070198  RH  095%=      5-min Rain = 0
KAI1 251557Z 16016KT 21/20 A3004 RMK A01 T02060197  RH  095%=      5-min Rain = 0
KAI1 251558Z 16018KT 21/20 A3004 RMK A01 T02060197  RH  094%=      5-min Rain = 0
KAI1 251559Z 17017KT 21/20 A3004 RMK A01 T02060196  RH  094%=      5-min Rain = 0
KAI1 251600Z 17015KT 21/20 A3004 RMK A01 T02060197  RH  094%=      5-min Rain = 0
KAI1 251601Z 17012KT 21/20 A3004 RMK A01 T02060198  RH  095%=      5-min Rain = 0
KAI1 251602Z 16015KT 21/20 A3004 RMK A01 T02060199  RH  096%=      5-min Rain = 0
KAI1 251603Z 16016KT 21/20 A3004 RMK A01 T02060198  RH  095%=      5-min Rain = 0
KAI1 251604Z 16017KT 21/20 A3004 RMK A01 T02070197  RH  094%=      5-min Rain = 0
KAI1 251605Z 16015KT 21/20 A3004 RMK A01 T02070197  RH  094%=      5-min Rain = 0
KAI1 251606Z 16017KT 21/20 A3004 RMK A01 T02080198  RH  094%=      5-min Rain = 0
KAI1 251607Z 17016KT 21/20 A3004 RMK A01 T02080198  RH  094%=      5-min Rain = 0
KAI1 251608Z 16015KT 21/20 A3004 RMK A01 T02090199  RH  094%=      5-min Rain = 0
KAI1 251609Z 15016KT 21/20 A3004 RMK A01 T02090199  RH  094%=      5-min Rain = 0
KAI1 251610Z 16016KT 21/20 A3003 RMK A01 T02090198  RH  094%=      5-min Rain = 0
KAI1 251611Z 16016KT 21/20 A3004 RMK A01 T02080198  RH  094%=      5-min Rain = 0
KAI1 251612Z 15016KT 21/20 A3004 RMK A01 T02080198  RH  094%=      5-min Rain = 0
KAI1 251613Z 15017KT 21/20 A3004 RMK A01 T02080198  RH  094%=      5-min Rain = 0
KAI1 251614Z 16018KT 21/20 A3004 RMK A01 T02080198  RH  094%=      5-min Rain = 0
KAI1 251615Z 16019KT 21/20 A3004 RMK A01 T02080197  RH  094%=      5-min Rain = 0
KAI1 251616Z 16016KT 21/20 A3004 RMK A01 T02070197  RH  094%=      5-min Rain = 0
KAI1 251617Z 16015KT 21/20 A3004 RMK A01 T02070197  RH  094%=      5-min Rain = 0
KAI1 251618Z 16016KT 21/20 A3004 RMK A01 T02070197  RH  094%=      5-min Rain = 0
KAI1 251619Z 17016KT 21/20 A3004 RMK A01 T02070197  RH  094%=      5-min Rain = 0
KAI1 251620Z 17016KT 21/20 A3004 RMK A01 T02070197  RH  094%=      5-min Rain = 0
KAI1 251621Z 16017KT 21/20 A3004 RMK A01 T02070198  RH  094%=      5-min Rain = 0
KAI1 251622Z 16017KT 21/20 A3004 RMK A01 T02070198  RH  095%=      5-min Rain = 0
KAI1 251623Z 16017KT 21/20 A3004 RMK A01 T02070197  RH  094%=      5-min Rain = 0
KAI1 251624Z 16016KT 21/20 A3004 RMK A01 T02060198  RH  095%=      5-min Rain = 0
KAI1 251625Z 16016KT 21/20 A3004 RMK A01 T02060198  RH  095%=      5-min Rain = 0
KAI1 251626Z 16017KT 21/20 A3004 RMK A01 T02060198  RH  095%=      5-min Rain = 0
KAI1 251627Z 17018KT 21/20 A3004 RMK A01 T02060198  RH  095%=      5-min Rain = 0
KAI1 251628Z 16017KT 21/20 A3004 RMK A01 T02060198  RH  095%=      5-min Rain = 0
KAI1 251629Z 16019KT 21/20 A3004 RMK A01 T02060198  RH  095%=      5-min Rain = 0
KAI1 251630Z 17018KT 21/20 A3004 RMK A01 T02060197  RH  095%=      5-min Rain = 0
KAI1 251631Z 16018KT 21/20 A3004 RMK A01 T02050197  RH  095%=      5-min Rain = 0
KAI1 251632Z 17018KT 21/20 A3004 RMK A01 T02050198  RH  095%=      5-min Rain = 0
KAI1 251633Z 16017KT 21/20 A3004 RMK A01 T02060198  RH  095%=      5-min Rain = 0
KAI1 251634Z 16020KT 21/20 A3004 RMK A01 T02050197  RH  095%=      5-min Rain = 0
KAI1 251635Z 16018KT 21/20 A3004 RMK A01 T02050197  RH  095%=      5-min Rain = 0
KAI1 251636Z 16019KT 21/20 A3004 RMK A01 T02050197  RH  095%=      5-min Rain = 0
KAI1 251637Z 16018KT 21/20 A3004 RMK A01 T02050197  RH  095%=      5-min Rain = 0
KAI1 251638Z 16016KT 20/20 A3004 RMK A01 T02040197  RH  095%=      5-min Rain = 0
KAI1 251639Z 16017KT 21/20 A3004 RMK A01 T02050197  RH  095%=      5-min Rain = 0
KAI1 251640Z 16018KT 20/20 A3004 RMK A01 T02040197  RH  096%=      5-min Rain = 0
KAI1 251641Z 16017KT 21/20 A3004 RMK A01 T02050197  RH  095%=      5-min Rain = 0
KAI1 251642Z 16016KT 21/20 A3004 RMK A01 T02050198  RH  095%=      5-min Rain = 0
KAI1 251643Z 17016KT 21/20 A3004 RMK A01 T02060198  RH  095%=      5-min Rain = 0
KAI1 251644Z 16015KT 21/20 A3004 RMK A01 T02060198  RH  095%=      5-min Rain = 0
KAI1 251645Z 16015KT 21/20 A3004 RMK A01 T02070199  RH  095%=      5-min Rain = 0
KAI1 251646Z 16014KT 21/20 A3004 RMK A01 T02070199  RH  095%=      5-min Rain = 0
KAI1 251647Z 16015KT 21/20 A3004 RMK A01 T02070199  RH  095%=      5-min Rain = 0
KAI1 251648Z 16014KT 21/20 A3004 RMK A01 T02080199  RH  095%=      5-min Rain = 0
KAI1 251649Z 17017KT 21/20 A3004 RMK A01 T02080199  RH  095%=      5-min Rain = 0
KAI1 251650Z 17017KT 21/20 A3004 RMK A01 T02080199  RH  094%=      5-min Rain = 0
KAI1 251651Z 17018KT 21/20 A3004 RMK A01 T02080198  RH  094%=      5-min Rain = 0
KAI1 251652Z 16016KT 21/20 A3004 RMK A01 T02080199  RH  094%=      5-min Rain = 0
KAI1 251653Z 16019KT 21/20 A3004 RMK A01 T02080198  RH  094%=      5-min Rain = 0
KAI1 251654Z 16017KT 21/20 A3004 RMK A01 T02090199  RH  094%=      5-min Rain = 0
KAI1 251655Z 17016KT 21/20 A3005 RMK A01 T02090198  RH  094%=      5-min Rain = 0
KAI1 251656Z 16018G23KT 21/20 A3004 RMK A01 T02090199  RH  094%=      5-min Rain = 0
KAI1 251657Z 17017KT 21/20 A3005 RMK A01 T02080198  RH  094%=      5-min Rain = 0
KAI1 251658Z 17017KT 21/20 A3005 RMK A01 T02080198  RH  094%=      5-min Rain = 0
KAI1 251659Z 17017KT 21/20 A3005 RMK A01 T02090199  RH  094%=      5-min Rain = 0
KAI1 251700Z 17016G22KT 21/20 A3004 RMK A01 T02090199  RH  094%=      5-min Rain = 0
KAI1 251701Z 16018KT 21/20 A3004 RMK A01 T02100199  RH  093%=      5-min Rain = 0
KAI1 251702Z 16018KT 21/20 A3004 RMK A01 T02090198  RH  093%=      5-min Rain = 0
KAI1 251703Z 16018KT 21/20 A3004 RMK A01 T02090198  RH  093%=      5-min Rain = 0
KAI1 251704Z 17018KT 21/20 A3005 RMK A01 T02090198  RH  093%=      5-min Rain = 0
KAI1 251705Z 16017KT 21/20 A3005 RMK A01 T02090199  RH  093%=      5-min Rain = 0
KAI1 251706Z 17018KT 21/20 A3004 RMK A01 T02100198  RH  093%=      5-min Rain = 0
KAI1 251707Z 16020KT 21/20 A3004 RMK A01 T02100198  RH  093%=      5-min Rain = 0
KAI1 251708Z 17017KT 21/20 A3005 RMK A01 T02100198  RH  093%=      5-min Rain = 0
KAI1 251709Z 17016KT 21/20 A3005 RMK A01 T02100199  RH  094%=      5-min Rain = 0
KAI1 251710Z 16016KT 21/20 A3005 RMK A01 T02100200  RH  094%=      5-min Rain = 0
KAI1 251711Z 16016KT 21/20 A3005 RMK A01 T02100200  RH  094%=      5-min Rain = 0
KAI1 251712Z 17018KT 21/20 A3005 RMK A01 T02110200  RH  093%=      5-min Rain = 0
KAI1 251713Z 16015KT 21/20 A3005 RMK A01 T02100200  RH  094%=      5-min Rain = 0
KAI1 251714Z 16015KT 21/20 A3005 RMK A01 T02100201  RH  094%=      5-min Rain = 0
KAI1 251715Z 16016G21KT 21/20 A3004 RMK A01 T02110201  RH  094%=      5-min Rain = 0
KAI1 251716Z 16020KT 21/20 A3004 RMK A01 T02100199  RH  093%=      5-min Rain = 0
KAI1 251717Z 17018KT 21/20 A3004 RMK A01 T02100198  RH  093%=      5-min Rain = 0
KAI1 251718Z 17018KT 21/20 A3004 RMK A01 T02090198  RH  093%=      5-min Rain = 0
KAI1 251719Z 17018KT 21/20 A3004 RMK A01 T02090198  RH  093%=      5-min Rain = 0
KAI1 251720Z 17016KT 21/20 A3004 RMK A01 T02090199  RH  094%=      5-min Rain = 0
KAI1 251721Z 16014KT 21/20 A3004 RMK A01 T02090200  RH  094%=      5-min Rain = 0
KAI1 251722Z 16014KT 21/20 A3004 RMK A01 T02090200  RH  094%=      5-min Rain = 0
KAI1 251723Z 17017KT 21/20 A3004 RMK A01 T02090200  RH  095%=      5-min Rain = 0
KAI1 251724Z 16017KT 21/20 A3004 RMK A01 T02090199  RH  094%=      5-min Rain = 0
KAI1 251725Z 16019KT 21/20 A3004 RMK A01 T02090198  RH  094%=      5-min Rain = 0
KAI1 251726Z 16019KT 21/20 A3004 RMK A01 T02080197  RH  093%=      5-min Rain = 0
KAI1 251727Z 16018KT 21/20 A3004 RMK A01 T02080197  RH  094%=      5-min Rain = 0
KAI1 251728Z 17017KT 21/20 A3004 RMK A01 T02080198  RH  094%=      5-min Rain = 0
KAI1 251729Z 17015KT 21/20 A3004 RMK A01 T02080200  RH  095%=      5-min Rain = 0
KAI1 251730Z 17016KT 21/20 A3004 RMK A01 T02080199  RH  095%=      5-min Rain = 0
KAI1 251731Z 17017KT 21/20 A3004 RMK A01 T02080198  RH  094%=      5-min Rain = 0
KAI1 251732Z 17016KT 21/20 A3004 RMK A01 T02070197  RH  094%=      5-min Rain = 0
KAI1 251733Z 17014KT 21/20 A3004 RMK A01 T02070198  RH  095%=      5-min Rain = 0
KAI1 251734Z 17016KT 21/20 A3004 RMK A01 T02070198  RH  095%=      5-min Rain = 0
KAI1 251735Z 17016KT 21/20 A3004 RMK A01 T02070199  RH  095%=      5-min Rain = 0
KAI1 251736Z 17017KT 21/20 A3004 RMK A01 T02070198  RH  095%=      5-min Rain = 0
KAI1 251737Z 17016KT 21/20 A3004 RMK A01 T02070198  RH  094%=      5-min Rain = 0
KAI1 251738Z 17015KT 21/20 A3004 RMK A01 T02070198  RH  095%=      5-min Rain = 0
KAI1 251739Z 16016KT 21/20 A3004 RMK A01 T02070198  RH  095%=      5-min Rain = 0
KAI1 251740Z 17018KT 21/20 A3004 RMK A01 T02070198  RH  095%=      5-min Rain = 0
KAI1 251741Z 16016KT 21/20 A3004 RMK A01 T02070198  RH  094%=      5-min Rain = 0
KAI1 251742Z 17015KT 21/20 A3004 RMK A01 T02070198  RH  095%=      5-min Rain = 0
KAI1 251743Z 17016KT 21/20 A3004 RMK A01 T02070198  RH  095%=      5-min Rain = 0
KAI1 251744Z 17015KT 21/20 A3004 RMK A01 T02070198  RH  094%=      5-min Rain = 0
KAI1 251745Z 17016KT 21/20 A3004 RMK A01 T02080199  RH  095%=      5-min Rain = 0
KAI1 251746Z 17016KT 21/20 A3004 RMK A01 T02080198  RH  094%=      5-min Rain = 0
KAI1 251747Z 17013KT 21/20 A3004 RMK A01 T02080199  RH  094%=      5-min Rain = 0
KAI1 251748Z 17015KT 21/20 A3004 RMK A01 T02080199  RH  094%=      5-min Rain = 0
KAI1 251749Z 17015KT 21/20 A3004 RMK A01 T02090198  RH  094%=      5-min Rain = 0
KAI1 251750Z 17017KT 21/20 A3004 RMK A01 T02090199  RH  094%=      5-min Rain = 0
KAI1 251751Z 16015KT 21/20 A3004 RMK A01 T02090199  RH  094%=      5-min Rain = 0
KAI1 251752Z 16016KT 21/20 A3004 RMK A01 T02100199  RH  094%=      5-min Rain = 0
KAI1 251753Z 17017KT 21/20 A3004 RMK A01 T02100199  RH  094%=      5-min Rain = 0
KAI1 251754Z 16015KT 21/20 A3004 RMK A01 T02100199  RH  093%=      5-min Rain = 0
KAI1 251755Z 17016KT 21/20 A3004 RMK A01 T02100199  RH  094%=      5-min Rain = 0
KAI1 251756Z 16016KT 21/20 A3004 RMK A01 T02100199  RH  093%=      5-min Rain = 0
KAI1 251757Z 16014KT 21/20 A3004 RMK A01 T02090199  RH  094%=      5-min Rain = 0
KAI1 251758Z 16017KT 21/20 A3004 RMK A01 T02100199  RH  094%=      5-min Rain = 0
KAI1 251759Z 16016KT 21/20 A3004 RMK A01 T02100198  RH  093%=      5-min Rain = 0
KAI1 251800Z 16015KT 21/20 A3004 RMK A01 T02100198  RH  093%=      5-min Rain = 0
KAI1 251801Z 16014KT 21/20 A3004 RMK A01 T02100199  RH  093%=      5-min Rain = 0
KAI1 251802Z 17014KT 21/20 A3004 RMK A01 T02100200  RH  094%=      5-min Rain = 0
KAI1 251803Z 17016KT 21/20 A3004 RMK A01 T02100199  RH  093%=      5-min Rain = 0
KAI1 251804Z 16015KT 21/20 A3004 RMK A01 T02100199  RH  093%=      5-min Rain = 0
KAI1 251805Z 16015KT 21/20 A3004 RMK A01 T02110199  RH  093%=      5-min Rain = 0
KAI1 251806Z 16017KT 21/20 A3004 RMK A01 T02110199  RH  093%=      5-min Rain = 0
KAI1 251807Z 17019KT 21/20 A3004 RMK A01 T02110198  RH  092%=      5-min Rain = 0
KAI1 251808Z 16017KT 21/20 A3004 RMK A01 T02110198  RH  092%=      5-min Rain = 0
KAI1 251809Z 17017KT 21/20 A3004 RMK A01 T02100198  RH  093%=      5-min Rain = 0
KAI1 251810Z 16017KT 21/20 A3004 RMK A01 T02100198  RH  093%=      5-min Rain = 0
KAI1 251811Z 16016KT 21/20 A3004 RMK A01 T02100198  RH  093%=      5-min Rain = 0
KAI1 251812Z 16018KT 21/20 A3004 RMK A01 T02100197  RH  093%=      5-min Rain = 0
KAI1 251813Z 17017KT 21/20 A3004 RMK A01 T02090197  RH  093%=      5-min Rain = 0
KAI1 251814Z 16016KT 21/20 A3004 RMK A01 T02100198  RH  093%=      5-min Rain = 0
KAI1 251815Z 16016KT 21/20 A3004 RMK A01 T02100199  RH  094%=      5-min Rain = 0
KAI1 251816Z 16018KT 21/20 A3004 RMK A01 T02100199  RH  093%=      5-min Rain = 0
KAI1 251817Z 16017KT 21/20 A3004 RMK A01 T02100198  RH  093%=      5-min Rain = 0
KAI1 251818Z 16013KT 21/20 A3004 RMK A01 T02100199  RH  093%=      5-min Rain = 0
KAI1 251819Z 17013KT 21/20 A3003 RMK A01 T02100201  RH  094%=      5-min Rain = 0
KAI1 251820Z 16014KT 21/20 A3003 RMK A01 T02100201  RH  094%=      5-min Rain = 0
KAI1 251821Z 17014KT 21/20 A3003 RMK A01 T02100200  RH  094%=      5-min Rain = 0
KAI1 251822Z 16017KT 21/20 A3003 RMK A01 T02100200  RH  094%=      5-min Rain = 0
KAI1 251823Z 16017KT 21/20 A3003 RMK A01 T02100199  RH  094%=      5-min Rain = 0
KAI1 251824Z 17017KT 21/20 A3003 RMK A01 T02100198  RH  093%=      5-min Rain = 0
KAI1 251825Z 17016KT 21/20 A3003 RMK A01 T02090199  RH  094%=      5-min Rain = 0
KAI1 251826Z 16014KT 21/20 A3003 RMK A01 T02090199  RH  094%=      5-min Rain = 0
KAI1 251827Z 17016KT 21/20 A3003 RMK A01 T02090199  RH  094%=      5-min Rain = 0
KAI1 251828Z 17015KT 21/20 A3003 RMK A01 T02090200  RH  095%=      5-min Rain = 0
KAI1 251829Z 17015KT 21/20 A3003 RMK A01 T02090200  RH  095%=      5-min Rain = 0
KAI1 251830Z 17015KT 21/20 A3003 RMK A01 T02090200  RH  095%=      5-min Rain = 0
KAI1 251831Z 16015KT 21/20 A3003 RMK A01 T02090200  RH  095%=      5-min Rain = 0
KAI1 251832Z 17015KT 21/20 A3003 RMK A01 T02090200  RH  095%=      5-min Rain = 0
KAI1 251833Z 16016KT 21/20 A3003 RMK A01 T02090200  RH  095%=      5-min Rain = 0
KAI1 251834Z 16018KT 21/20 A3003 RMK A01 T02080199  RH  094%=      5-min Rain = 0
KAI1 251835Z 16017KT 21/20 A3003 RMK A01 T02080198  RH  094%=      5-min Rain = 0
KAI1 251836Z 17017KT 21/20 A3003 RMK A01 T02080199  RH  094%=      5-min Rain = 0
KAI1 251837Z 16017KT 21/20 A3002 RMK A01 T02080198  RH  094%=      5-min Rain = 0
KAI1 251838Z 16016KT 21/20 A3002 RMK A01 T02080199  RH  094%=      5-min Rain = 0
KAI1 251839Z 16016KT 21/20 A3002 RMK A01 T02080199  RH  094%=      5-min Rain = 0
KAI1 251840Z 17016KT 21/20 A3002 RMK A01 T02080198  RH  094%=      5-min Rain = 0
KAI1 251841Z 16017KT 21/20 A3002 RMK A01 T02070198  RH  095%=      5-min Rain = 0
KAI1 251842Z 16017KT 21/20 A3002 RMK A01 T02070198  RH  095%=      5-min Rain = 0
KAI1 251843Z 16016KT 21/20 A3002 RMK A01 T02060198  RH  095%=      5-min Rain = 0
KAI1 251844Z 16014KT 21/20 A3002 RMK A01 T02060198  RH  095%=      5-min Rain = 0
KAI1 251845Z 16014KT 21/20 A3002 RMK A01 T02060198  RH  095%=      5-min Rain = 0
KAI1 251846Z 16015KT 21/20 A3002 RMK A01 T02060199  RH  096%=      5-min Rain = 0
KAI1 251847Z 16014KT 21/20 A3002 RMK A01 T02050198  RH  096%=      5-min Rain = 0
KAI1 251848Z 16014KT 21/20 A3002 RMK A01 T02050198  RH  096%=      5-min Rain = 0
KAI1 251849Z 16014KT 21/20 A3002 RMK A01 T02050199  RH  096%=      5-min Rain = 0
KAI1 251850Z 16014KT 21/20 A3001 RMK A01 T02050198  RH  096%=      5-min Rain = 0
KAI1 251851Z 16013KT 21/20 A3001 RMK A01 T02050199  RH  096%=      5-min Rain = 0
KAI1 251852Z 15015KT 21/20 A3001 RMK A01 T02050199  RH  096%=      5-min Rain = 0
KAI1 251853Z 16014KT 21/20 A3001 RMK A01 T02050198  RH  096%=      5-min Rain = 0
KAI1 251854Z 16015KT 21/20 A3001 RMK A01 T02060198  RH  096%=      5-min Rain = 0
KAI1 251855Z 15014KT 21/20 A3001 RMK A01 T02050198  RH  095%=      5-min Rain = 0
KAI1 251856Z 15014KT 21/20 A3001 RMK A01 T02060199  RH  096%=      5-min Rain = 0
KAI1 251857Z 16015KT 21/20 A30 RMK A01 T02060198  RH  095%=      5-min Rain = 0
KAI1 251858Z 15013KT 21/20 A30 RMK A01 T02060199  RH  095%=      5-min Rain = 0
KAI1 251859Z 15014KT 21/20 A30 RMK A01 T02060199  RH  096%=      5-min Rain = 0
KAI1 251900Z 16015KT 21/20 A30 RMK A01 T02060198  RH  095%=      5-min Rain = 0
KAI1 251901Z 15015G20KT 21/20 A30 RMK A01 T02060199  RH  095%=      5-min Rain = 0
KAI1 251902Z 15016KT 21/20 A2999 RMK A01 T02060198  RH  095%=      5-min Rain = 0
KAI1 251903Z 15016KT 21/20 A2999 RMK A01 T02060198  RH  095%=      5-min Rain = 0
KAI1 251904Z 15015KT 21/20 A2999 RMK A01 T02060199  RH  095%=      5-min Rain = 0
KAI1 251905Z 15015KT 21/20 A2999 RMK A01 T02060199  RH  095%=      5-min Rain = 0
KAI1 251906Z 15015KT 21/20 A2999 RMK A01 T02060198  RH  095%=      5-min Rain = 0
KAI1 251907Z 15016KT 21/20 A2999 RMK A01 T02060198  RH  095%=      5-min Rain = 0
KAI1 251908Z 15017KT 21/20 A2999 RMK A01 T02060198  RH  095%=      5-min Rain = 0
KAI1 251909Z 15016KT 21/20 A30 RMK A01 T02060198  RH  095%=      5-min Rain = 0
KAI1 251910Z 15016KT 21/20 A30 RMK A01 T02060198  RH  095%=      5-min Rain = 0
KAI1 251911Z 15019KT 21/20 A30 RMK A01 T02060198  RH  095%=      5-min Rain = 0
KAI1 251912Z 15016KT 21/20 A30 RMK A01 T02060197  RH  095%=      5-min Rain = 0
KAI1 251913Z 15013KT 21/20 A30 RMK A01 T02060198  RH  095%=      5-min Rain = 0
KAI1 251914Z 15011KT 21/20 A30 RMK A01 T02060198  RH  095%=      5-min Rain = 0
KAI1 251915Z 15013KT 21/20 A30 RMK A01 T02060199  RH  096%=      5-min Rain = 0
KAI1 251916Z 15014KT 21/20 A2999 RMK A01 T02060199  RH  096%=      5-min Rain = 0
KAI1 251917Z 15014KT 21/20 A2999 RMK A01 T02060199  RH  096%=      5-min Rain = 0
KAI1 251918Z 15015KT 21/20 A2999 RMK A01 T02060198  RH  095%=      5-min Rain = 0
KAI1 251919Z 15013KT 21/20 A2999 RMK A01 T02060198  RH  095%=      5-min Rain = 0
KAI1 251920Z 15013KT 21/20 A30 RMK A01 T02060198  RH  095%=      5-min Rain = 0
KAI1 251921Z 15013KT 21/20 A30 RMK A01 T02060198  RH  095%=      5-min Rain = 0
KAI1 251922Z 15013KT 21/20 A3001 RMK A01 T02060198  RH  095%=      5-min Rain = 0
KAI1 251923Z 15012KT 21/20 A3001 RMK A01 T02060198  RH  095%=      5-min Rain = 0
KAI1 251924Z 15012KT 21/20 A3001 RMK A01 T02060198  RH  095%=      5-min Rain = 0
KAI1 251925Z 15014KT 21/20 A3001 RMK A01 T02060199  RH  095%=      5-min Rain = 0
KAI1 251926Z 15014KT 21/20 A30 RMK A01 T02060198  RH  095%=      5-min Rain = 0
KAI1 251927Z 15013KT 21/20 A30 RMK A01 T02060198  RH  095%=      5-min Rain = 0
KAI1 251928Z 15014KT 21/20 A30 RMK A01 T02060198  RH  096%=      5-min Rain = 0
KAI1 251929Z 15013KT 21/20 A30 RMK A01 T02050198  RH  096%=      5-min Rain = 0
KAI1 251930Z 15012KT 21/20 A30 RMK A01 T02050198  RH  096%=      5-min Rain = 0
KAI1 251931Z 15013KT 21/20 A30 RMK A01 T02050198  RH  096%=      5-min Rain = 0
KAI1 251932Z 15014KT 21/20 A30 RMK A01 T02050198  RH  096%=      5-min Rain = 0
KAI1 251933Z 15013KT 21/20 A2999 RMK A01 T02050198  RH  096%=      5-min Rain = 0
KAI1 251934Z 14012KT 21/20 A2999 RMK A01 T02050198  RH  096%=      5-min Rain = 0
KAI1 251935Z 15011KT 21/20 A2999 RMK A01 T02050198  RH  096%=      5-min Rain = 0
KAI1 251936Z 14012KT 21/20 A2999 RMK A01 T02050198  RH  096%=      5-min Rain = 0
KAI1 251937Z 15012KT 21/20 A2999 RMK A01 T02050198  RH  096%=      5-min Rain = 0
KAI1 251938Z 15014KT 21/20 A2999 RMK A01 T02050198  RH  096%=      5-min Rain = 0
KAI1 251939Z 15012KT 21/20 A2999 RMK A01 T02050197  RH  095%=      5-min Rain = 0
KAI1 251940Z 15012KT 21/20 A2999 RMK A01 T02050197  RH  095%=      5-min Rain = 0
KAI1 251941Z 15013KT 21/20 A2999 RMK A01 T02050198  RH  095%=      5-min Rain = 0
KAI1 251942Z 15012KT 21/20 A2999 RMK A01 T02050197  RH  095%=      5-min Rain = 0
KAI1 251943Z 14013KT 21/20 A2999 RMK A01 T02050197  RH  095%=      5-min Rain = 0
KAI1 251944Z 15013KT 21/20 A2999 RMK A01 T02050198  RH  096%=      5-min Rain = 0
KAI1 251945Z 15013KT 21/20 A2999 RMK A01 T02050198  RH  096%=      5-min Rain = 0
KAI1 251946Z 15012KT 21/20 A2999 RMK A01 T02050198  RH  096%=      5-min Rain = 0
KAI1 251947Z 15013KT 21/20 A2999 RMK A01 T02050198  RH  096%=      5-min Rain = 0
KAI1 251948Z 15014KT 21/20 A2999 RMK A01 T02050198  RH  096%=      5-min Rain = 0
KAI1 251949Z 15015KT 21/20 A2999 RMK A01 T02050198  RH  096%=      5-min Rain = 0
KAI1 251950Z 15014KT 21/20 A2999 RMK A01 T02050198  RH  096%=      5-min Rain = 0
KAI1 251951Z 15015KT 21/20 A2999 RMK A01 T02050198  RH  096%=      5-min Rain = 0
KAI1 251952Z 15014KT 21/20 A2998 RMK A01 T02050198  RH  096%=      5-min Rain = 0
KAI1 251953Z 14013KT 21/20 A2998 RMK A01 T02050198  RH  096%=      5-min Rain = 0
KAI1 251954Z 14014KT 21/20 A2998 RMK A01 T02050197  RH  096%=      5-min Rain = 0
KAI1 251955Z 13015KT 21/20 A2997 RMK A01 T02050198  RH  096%=      5-min Rain = 0
KAI1 251956Z 14013KT 21/20 A2997 RMK A01 T02050198  RH  096%=      5-min Rain = 0
KAI1 251957Z 14014KT 21/20 A2997 RMK A01 T02050198  RH  096%=      5-min Rain = 0
KAI1 251958Z 14014KT 21/20 A2997 RMK A01 T02050198  RH  096%=      5-min Rain = 0
KAI1 251959Z 13014KT 21/20 A2997 RMK A01 T02050198  RH  096%=      5-min Rain = 0
KAI1 252000Z 13014KT 21/20 A2997 RMK A01 T02050197  RH  095%=      5-min Rain = 0
KAI1 252001Z 14014KT 21/20 A2997 RMK A01 T02050198  RH  095%=      5-min Rain = 0
KAI1 252002Z 14013KT 21/20 A2997 RMK A01 T02050197  RH  095%=      5-min Rain = 0
KAI1 252003Z 13014KT 21/20 A2998 RMK A01 T02050198  RH  096%=      5-min Rain = 0
KAI1 252004Z 13014KT 21/20 A2998 RMK A01 T02050198  RH  096%=      5-min Rain = 0
KAI1 252005Z 13016KT 21/20 A2998 RMK A01 T02050198  RH  096%=      5-min Rain = 0
KAI1 252006Z 13014KT 21/20 A2998 RMK A01 T02050198  RH  096%=      5-min Rain = 0
KAI1 252007Z 13012KT 21/20 A2998 RMK A01 T02050198  RH  096%=      5-min Rain = 0
KAI1 252008Z 14013KT 21/20 A2998 RMK A01 T02050198  RH  096%=      5-min Rain = 0
KAI1 252009Z 14011KT 21/20 A2999 RMK A01 T02050198  RH  096%=      5-min Rain = 0
KAI1 252010Z 14010KT 21/20 A2999 RMK A01 T02050198  RH  096%=      5-min Rain = 0
KAI1 252011Z 14013KT 21/20 A2999 RMK A01 T02050198  RH  096%=      5-min Rain = 0
KAI1 252012Z 14014KT 21/20 A2999 RMK A01 T02060198  RH  096%=      5-min Rain = 0
KAI1 252013Z 14013KT 21/20 A2999 RMK A01 T02060198  RH  096%=      5-min Rain = 0
KAI1 252014Z 14012KT 21/20 A2999 RMK A01 T02060199  RH  096%=      5-min Rain = 0
KAI1 252015Z 14013KT 21/20 A2998 RMK A01 T02060198  RH  095%=      5-min Rain = 0
KAI1 252016Z 14014KT 21/20 A2998 RMK A01 T02060198  RH  095%=      5-min Rain = 0
KAI1 252017Z 15013KT 21/20 A2998 RMK A01 T02060198  RH  095%=      5-min Rain = 0
KAI1 252018Z 14012KT 21/20 A2998 RMK A01 T02070199  RH  095%=      5-min Rain = 0
KAI1 252019Z 15013KT 21/20 A2998 RMK A01 T02070199  RH  095%=      5-min Rain = 0
KAI1 252020Z 15012KT 21/20 A2998 RMK A01 T02070199  RH  095%=      5-min Rain = 0
KAI1 252021Z 15012KT 21/20 A2998 RMK A01 T02070199  RH  095%=      5-min Rain = 0
KAI1 252022Z 15012KT 21/20 A2999 RMK A01 T02070199  RH  095%=      5-min Rain = 0
KAI1 252023Z 15012KT 21/20 A2999 RMK A01 T02070199  RH  095%=      5-min Rain = 0
KAI1 252024Z 15014KT 21/20 A2999 RMK A01 T02070200  RH  095%=      5-min Rain = 0
KAI1 252025Z 15014KT 21/20 A2999 RMK A01 T02070199  RH  095%=      5-min Rain = 0
KAI1 252026Z 16013KT 21/20 A2999 RMK A01 T02070199  RH  095%=      5-min Rain = 0
KAI1 252027Z 15012KT 21/20 A2999 RMK A01 T02080200  RH  095%=      5-min Rain = 0
KAI1 252028Z 15013KT 21/20 A2999 RMK A01 T02080199  RH  095%=      5-min Rain = 0
KAI1 252029Z 16013KT 21/20 A2999 RMK A01 T02080200  RH  095%=      5-min Rain = 0
KAI1 252030Z 16011KT 21/20 A2999 RMK A01 T02080200  RH  095%=      5-min Rain = 0
KAI1 252031Z 16010KT 21/20 A2999 RMK A01 T02090200  RH  095%=      5-min Rain = 0
KAI1 252032Z 16010KT 21/20 A2999 RMK A01 T02090201  RH  095%=      5-min Rain = 0
KAI1 252033Z 17010KT 21/20 A30 RMK A01 T02090201  RH  095%=      5-min Rain = 0
KAI1 252034Z 17008KT 21/20 A30 RMK A01 T02100201  RH  095%=      5-min Rain = 0
KAI1 252035Z 17008KT 21/20 A30 RMK A01 T02100201  RH  095%=      5-min Rain = 0
KAI1 252036Z 18007KT 21/20 A30 RMK A01 T02100201  RH  095%=      5-min Rain = 0
KAI1 252037Z 20005KT 21/20 A30 RMK A01 T02100201  RH  094%=      5-min Rain = 0
KAI1 252038Z 21004KT 21/20 A30 RMK A01 T02100201  RH  094%=      5-min Rain = 0
KAI1 252039Z 25003KT 21/20 A30 RMK A01 T02110201  RH  094%=      5-min Rain = 0
KAI1 252040Z 25005KT 21/20 A30 RMK A01 T02110201  RH  094%=      5-min Rain = 0
KAI1 252041Z 31009KT 21/19 A3001 RMK A01 T02090185  RH  086%=      5-min Rain = 0
KAI1 252042Z 31009KT 20/16 A30 RMK A01 T01980163  RH  080%=      5-min Rain = 0
KAI1 252043Z 32008KT 19/16 A30 RMK A01 T01890160  RH  083%=      5-min Rain = 0
KAI1 252044Z 33007KT 18/16 A30 RMK A01 T01840160  RH  086%=      5-min Rain = 0
KAI1 252045Z 33006KT 18/16 A30 RMK A01 T01800159  RH  087%=      5-min Rain = 0
KAI1 252046Z 32005KT 18/16 A30 RMK A01 T01790160  RH  089%=      5-min Rain = 0
KAI1 252047Z 31004KT 18/16 A30 RMK A01 T01770160  RH  090%=      5-min Rain = 0
KAI1 252048Z 34003KT 18/16 A30 RMK A01 T01770160  RH  090%=      5-min Rain = 0
KAI1 252049Z 32004KT 18/16 A30 RMK A01 T01760159  RH  090%=      5-min Rain = 0
KAI1 252050Z 31006KT 18/16 A2999 RMK A01 T01760159  RH  090%=      5-min Rain = 0
KAI1 252051Z 31008KT 18/16 A2999 RMK A01 T01760160  RH  091%=      5-min Rain = 0
KAI1 252052Z 31007KT 18/16 A2999 RMK A01 T01760160  RH  091%=      5-min Rain = 0
KAI1 252053Z 31006KT 18/16 A2999 RMK A01 T01760160  RH  090%=      5-min Rain = 0
KAI1 252054Z 32005KT 18/16 A2999 RMK A01 T01760159  RH  090%=      5-min Rain = 0
KAI1 252055Z 30004KT 18/16 A2999 RMK A01 T01760158  RH  090%=      5-min Rain = 0
KAI1 252056Z 36003KT 18/16 A2999 RMK A01 T01760160  RH  090%=      5-min Rain = 0
KAI1 252057Z 03004KT 18/16 A2999 RMK A01 T01770163  RH  091%=      5-min Rain = 0
KAI1 252058Z 04004KT 18/16 A2999 RMK A01 T01780164  RH  091%=      5-min Rain = 0
KAI1 252059Z 02004KT 18/17 A2999 RMK A01 T01800165  RH  091%=      5-min Rain = 0
KAI1 252100Z 01004KT 18/17 A2999 RMK A01 T01810167  RH  092%=      5-min Rain = 0
KAI1 252101Z 03002KT 18/17 A2999 RMK A01 T01820168  RH  092%=      5-min Rain = 0
KAI1 252102Z 04001KT 18/17 A2999 RMK A01 T01830168  RH  091%=      5-min Rain = 0
KAI1 252103Z 05002KT 18/17 A2999 RMK A01 T01840169  RH  091%=      5-min Rain = 0
KAI1 252104Z 04003KT 18/17 A2999 RMK A01 T01840170  RH  091%=      5-min Rain = 0
KAI1 252105Z 03002KT 18/17 A2999 RMK A01 T01840169  RH  091%=      5-min Rain = 0
KAI1 252106Z 02002KT 19/17 A2999 RMK A01 T01850170  RH  091%=      5-min Rain = 0
KAI1 252107Z 01003KT 19/17 A2999 RMK A01 T01850170  RH  091%=      5-min Rain = 0
KAI1 252108Z 02004KT 19/17 A2999 RMK A01 T01860172  RH  092%=      5-min Rain = 0
KAI1 252109Z 01004KT 19/17 A2999 RMK A01 T01860172  RH  092%=      5-min Rain = 0
KAI1 252110Z 01004KT 19/17 A2999 RMK A01 T01860172  RH  091%=      5-min Rain = 0
KAI1 252111Z 02005KT 19/17 A2999 RMK A01 T01860172  RH  091%=      5-min Rain = 0
KAI1 252112Z 02005KT 19/17 A2999 RMK A01 T01860172  RH  092%=      5-min Rain = 0
KAI1 252113Z 02005KT 19/17 A2998 RMK A01 T01860172  RH  092%=      5-min Rain = 0
KAI1 252114Z 01005KT 19/17 A2998 RMK A01 T01860171  RH  091%=      5-min Rain = 0
KAI1 252115Z 02005KT 19/17 A2998 RMK A01 T01860170  RH  091%=      5-min Rain = 0
KAI1 252116Z 01005KT 19/17 A2998 RMK A01 T01860170  RH  091%=      5-min Rain = 0
KAI1 252117Z 01006KT 19/17 A2997 RMK A01 T01850170  RH  091%=      5-min Rain = 0
KAI1 252118Z 01005KT 19/17 A2997 RMK A01 T01850170  RH  091%=      5-min Rain = 0
KAI1 252119Z 01006KT 19/17 A2997 RMK A01 T01850171  RH  092%=      5-min Rain = 0
KAI1 252120Z 01006KT 19/17 A2996 RMK A01 T01850171  RH  091%=      5-min Rain = 0
KAI1 252121Z 01005KT 19/17 A2996 RMK A01 T01850172  RH  092%=      5-min Rain = 0
KAI1 252122Z 00006KT 19/17 A2996 RMK A01 T01860173  RH  092%=      5-min Rain = 0
KAI1 252123Z 01006KT 19/17 A2996 RMK A01 T01860173  RH  092%=      5-min Rain = 0
KAI1 252124Z 00006KT 19/17 A2996 RMK A01 T01870173  RH  092%=      5-min Rain = 0
KAI1 252125Z 01007KT 19/17 A2996 RMK A01 T01870174  RH  092%=      5-min Rain = 0
KAI1 252126Z 01006KT 19/17 A2996 RMK A01 T01870173  RH  091%=      5-min Rain = 0
KAI1 252127Z 01006KT 19/17 A2996 RMK A01 T01870173  RH  092%=      5-min Rain = 0
KAI1 252128Z 02006KT 19/17 A2996 RMK A01 T01870174  RH  092%=      5-min Rain = 0
KAI1 252129Z 01006KT 19/18 A2996 RMK A01 T01880175  RH  092%=      5-min Rain = 0
KAI1 252130Z 01005KT 19/18 A2996 RMK A01 T01880175  RH  092%=      5-min Rain = 0
KAI1 252131Z 01005KT 19/18 A2996 RMK A01 T01880175  RH  092%=      5-min Rain = 0
KAI1 252132Z 02005KT 19/18 A2995 RMK A01 T01880176  RH  092%=      5-min Rain = 0
KAI1 252133Z 02005KT 19/18 A2995 RMK A01 T01880175  RH  092%=      5-min Rain = 0
KAI1 252134Z 02006KT 19/18 A2995 RMK A01 T01890175  RH  092%=      5-min Rain = 0
KAI1 252135Z 02006KT 19/17 A2996 RMK A01 T01880174  RH  092%=      5-min Rain = 0
KAI1 252136Z 02005KT 19/18 A2996 RMK A01 T01880175  RH  092%=      5-min Rain = 0
KAI1 252137Z 02005KT 19/18 A2996 RMK A01 T01890175  RH  092%=      5-min Rain = 0
KAI1 252138Z 02005KT 19/18 A2996 RMK A01 T01890176  RH  092%=      5-min Rain = 0
KAI1 252139Z 03004KT 19/18 A2996 RMK A01 T01900177  RH  092%=      5-min Rain = 0
KAI1 252140Z 03005KT 19/18 A2996 RMK A01 T01900178  RH  093%=      5-min Rain = 0
KAI1 252141Z 04006KT 19/18 A2995 RMK A01 T01920180  RH  093%=      5-min Rain = 0
KAI1 252142Z 04006KT 19/18 A2995 RMK A01 T01930180  RH  092%=      5-min Rain = 0
KAI1 252143Z 06006KT 19/18 A2995 RMK A01 T01930180  RH  092%=      5-min Rain = 0
KAI1 252144Z 08005KT 19/18 A2995 RMK A01 T01930180  RH  092%=      5-min Rain = 0
KAI1 252145Z 10007KT 19/18 A2995 RMK A01 T01930181  RH  093%=      5-min Rain = 0
KAI1 252146Z 11009KT 19/18 A2994 RMK A01 T01930181  RH  093%=      5-min Rain = 0
KAI1 252147Z 13012KT 20/19 A2994 RMK A01 T01980193  RH  097%=      5-min Rain = 0
KAI1 252148Z 14012KT 20/20 A2994 RMK A01 T02040201  RH  098%=      5-min Rain = 0
KAI1 252149Z 14012KT 21/20 A2994 RMK A01 T02080204  RH  098%=      5-min Rain = 0
KAI1 252150Z 14015KT 21/21 A2994 RMK A01 T02110206  RH  097%=      5-min Rain = 0
KAI1 252151Z 14015KT 22/21 A2994 RMK A01 T02150206  RH  095%=      5-min Rain = 0
KAI1 252152Z 14017KT 22/21 A2994 RMK A01 T02170205  RH  093%=      5-min Rain = 0
KAI1 252153Z 14018KT 22/20 A2993 RMK A01 T02180204  RH  092%=      5-min Rain = 0
KAI1 252154Z 14017KT 22/20 A2993 RMK A01 T02190204  RH  091%=      5-min Rain = 0
KAI1 252155Z 14018KT 22/20 A2993 RMK A01 T02200204  RH  090%=      5-min Rain = 0
KAI1 252156Z 14018KT 22/20 A2993 RMK A01 T02200203  RH  090%=      5-min Rain = 0
KAI1 252157Z 14016KT 22/20 A2993 RMK A01 T02200203  RH  090%=      5-min Rain = 0
KAI1 252158Z 14015KT 22/20 A2993 RMK A01 T02200203  RH  090%=      5-min Rain = 0
KAI1 252159Z 14017KT 22/20 A2993 RMK A01 T02210203  RH  090%=      5-min Rain = 0
KAI1 252200Z 15017KT 22/20 A2993 RMK A01 T02210204  RH  090%=      5-min Rain = 0
KAI1 252201Z 15016KT 22/20 A2993 RMK A01 T02210203  RH  090%=      5-min Rain = 0
KAI1 252202Z 14015KT 22/20 A2993 RMK A01 T02210203  RH  089%=      5-min Rain = 0
KAI1 252203Z 14017KT 22/20 A2993 RMK A01 T02210203  RH  090%=      5-min Rain = 0
KAI1 252204Z 14016KT 22/20 A2994 RMK A01 T02210203  RH  090%=      5-min Rain = 0
KAI1 252205Z 15015KT 22/20 A2994 RMK A01 T02210204  RH  090%=      5-min Rain = 0
KAI1 252206Z 14014KT 22/20 A2995 RMK A01 T02210203  RH  090%=      5-min Rain = 0
KAI1 252207Z 14015KT 22/20 A2995 RMK A01 T02220204  RH  089%=      5-min Rain = 0
KAI1 252208Z 14012KT 22/20 A2995 RMK A01 T02220204  RH  089%=      5-min Rain = 0
KAI1 252209Z 15014KT 22/20 A2995 RMK A01 T02230204  RH  089%=      5-min Rain = 0
KAI1 252210Z 15015KT 22/20 A2995 RMK A01 T02220204  RH  089%=      5-min Rain = 0
KAI1 252211Z 15017KT 22/20 A2994 RMK A01 T02220203  RH  089%=      5-min Rain = 0
KAI1 252212Z 15018KT 22/20 A2994 RMK A01 T02220203  RH  089%=      5-min Rain = 0
KAI1 252213Z 14017KT 22/20 A2993 RMK A01 T02220203  RH  089%=      5-min Rain = 0
KAI1 252214Z 14016KT 22/20 A2993 RMK A01 T02220203  RH  089%=      5-min Rain = 0
KAI1 252215Z 14015KT 22/20 A2994 RMK A01 T02220204  RH  089%=      5-min Rain = 0
KAI1 252216Z 15016KT 22/20 A2994 RMK A01 T02220204  RH  089%=      5-min Rain = 0
KAI1 252217Z 14016G21KT 22/20 A2995 RMK A01 T02220204  RH  090%=      5-min Rain = 0
KAI1 252218Z 15013KT 22/20 A2995 RMK A01 T02220204  RH  089%=      5-min Rain = 0
KAI1 252219Z 14016KT 22/20 A2995 RMK A01 T02220204  RH  090%=      5-min Rain = 0
KAI1 252220Z 14013KT 22/20 A2995 RMK A01 T02220204  RH  089%=      5-min Rain = 0
KAI1 252221Z 14014KT 22/20 A2995 RMK A01 T02220204  RH  089%=      5-min Rain = 0
KAI1 252222Z 14014KT 22/20 A2995 RMK A01 T02220204  RH  089%=      5-min Rain = 0
KAI1 252223Z 14014KT 22/20 A2994 RMK A01 T02220204  RH  089%=      5-min Rain = 0
KAI1 252224Z 13014KT 22/21 A2994 RMK A01 T02220205  RH  090%=      5-min Rain = 0
KAI1 252225Z 13015KT 22/20 A2993 RMK A01 T02220204  RH  090%=      5-min Rain = 0
KAI1 252226Z 13015KT 22/20 A2993 RMK A01 T02220204  RH  090%=      5-min Rain = 0
KAI1 252227Z 13016KT 22/20 A2993 RMK A01 T02220204  RH  090%=      5-min Rain = 0
KAI1 252228Z 14017KT 22/20 A2993 RMK A01 T02220203  RH  089%=      5-min Rain = 0
KAI1 252229Z 14016KT 22/20 A2993 RMK A01 T02220203  RH  089%=      5-min Rain = 0
KAI1 252230Z 13016KT 22/20 A2993 RMK A01 T02220203  RH  089%=      5-min Rain = 0
KAI1 252231Z 14014KT 22/20 A2993 RMK A01 T02220203  RH  089%=      5-min Rain = 0
KAI1 252232Z 14015KT 22/20 A2993 RMK A01 T02220203  RH  089%=      5-min Rain = 0
KAI1 252233Z 14017KT 22/20 A2992 RMK A01 T02220203  RH  089%=      5-min Rain = 0
KAI1 252234Z 14017KT 22/20 A2992 RMK A01 T02210203  RH  089%=      5-min Rain = 0
KAI1 252235Z 14017KT 22/20 A2991 RMK A01 T02220203  RH  089%=      5-min Rain = 0
KAI1 252236Z 14017KT 22/20 A299 RMK A01 T02210203  RH  090%=      5-min Rain = 0
KAI1 252237Z 15020KT 22/20 A299 RMK A01 T02210203  RH  090%=      5-min Rain = 0
KAI1 252238Z 15022KT 22/20 A2989 RMK A01 T02210203  RH  090%=      5-min Rain = 0
KAI1 252239Z 15022KT 22/20 A2989 RMK A01 T02210203  RH  089%=      5-min Rain = 0
KAI1 252240Z 15022KT 22/20 A2989 RMK A01 T02210202  RH  089%=      5-min Rain = 0
KAI1 252241Z 15022KT 22/20 A2989 RMK A01 T02210202  RH  089%=      5-min Rain = 0
KAI1 252242Z 15018G23KT 22/20 A2989 RMK A01 T02210202  RH  089%=      5-min Rain = 0
KAI1 252243Z 15021G26KT 22/20 A299 RMK A01 T02210203  RH  089%=      5-min Rain = 0
KAI1 252244Z 15022KT 22/20 A2991 RMK A01 T02210203  RH  089%=      5-min Rain = 0
KAI1 252245Z 15022KT 22/20 A2992 RMK A01 T02210203  RH  089%=      5-min Rain = 0
KAI1 252246Z 15021KT 22/20 A2992 RMK A01 T02210203  RH  089%=      5-min Rain = 0
KAI1 252247Z 15019KT 22/20 A2992 RMK A01 T02220203  RH  089%=      5-min Rain = 0
KAI1 252248Z 15019KT 22/20 A2993 RMK A01 T02220203  RH  089%=      5-min Rain = 0
KAI1 252249Z 15018KT 22/20 A2993 RMK A01 T02220203  RH  089%=      5-min Rain = 0
KAI1 252250Z 15016G21KT 22/20 A2994 RMK A01 T02220203  RH  089%=      5-min Rain = 0
KAI1 252251Z 15018KT 22/20 A2994 RMK A01 T02220203  RH  089%=      5-min Rain = 0
KAI1 252252Z 15014KT 22/20 A2995 RMK A01 T02230203  RH  089%=      5-min Rain = 0
KAI1 252253Z 16013KT 22/20 A2995 RMK A01 T02230203  RH  088%=      5-min Rain = 0
KAI1 252254Z 17010KT 22/20 A2996 RMK A01 T02230203  RH  088%=      5-min Rain = 0
KAI1 252255Z 21006KT 22/20 A2996 RMK A01 T02230203  RH  088%=      5-min Rain = 0
KAI1 252256Z 27006KT 22/20 A2996 RMK A01 T02230203  RH  088%=      5-min Rain = 0
KAI1 252257Z 29010KT 22/20 A2996 RMK A01 T02230199  RH  086%=      5-min Rain = 0
KAI1 252258Z 29007KT 21/17 A2996 RMK A01 T02130174  RH  078%=      5-min Rain = 0
KAI1 252259Z 29006KT 20/17 A2996 RMK A01 T02040171  RH  081%=      5-min Rain = 0
KAI1 252300Z 30008KT 20/17 A2996 RMK A01 T01990166  RH  081%=      5-min Rain = 0
KAI1 252301Z 29007KT 20/16 A2995 RMK A01 T01960162  RH  080%=      5-min Rain = 0
KAI1 252302Z 29005KT 19/16 A2995 RMK A01 T01940162  RH  081%=      5-min Rain = 0
KAI1 252303Z 29005KT 19/16 A2995 RMK A01 T01930163  RH  083%=      5-min Rain = 0
KAI1 252304Z 29006KT 19/16 A2994 RMK A01 T01920163  RH  084%=      5-min Rain = 0
KAI1 252305Z 29007KT 19/16 A2994 RMK A01 T01900162  RH  084%=      5-min Rain = 0
KAI1 252306Z 28007KT 19/16 A2993 RMK A01 T01890160  RH  084%=      5-min Rain = 0
KAI1 252307Z 28012G21KT 19/16 A2993 RMK A01 T01880163  RH  085%=      5-min Rain = 0
KAI1 252308Z 28015G20KT 19/17 A2993 RMK A01 T01880165  RH  086%=      5-min Rain = 0.01
KAI1 252309Z 26010KT 19/17 A2993 RMK A01 T01870165  RH  087%=      5-min Rain = 0.02
KAI1 252310Z 26013G20KT 19/16 A2994 RMK A01 T01860164  RH  087%=      5-min Rain = 0.01
KAI1 252311Z 26016G24KT 19/17 A2996 RMK A01 T01860166  RH  088%=      5-min Rain = 0.03
KAI1 252312Z 25021KT 19/17 A2997 RMK A01 T01850166  RH  089%=      5-min Rain = 0.02
KAI1 252313Z 23017G22KT 18/17 A2999 RMK A01 T01830165  RH  089%=      5-min Rain = 0.03
KAI1 252314Z 23018KT 18/17 A30 RMK A01 T01820165  RH  090%=      5-min Rain = 0.03
KAI1 252315Z 24015KT 18/17 A30 RMK A01 T01800165  RH  091%=      5-min Rain = 0.02
KAI1 252316Z 24019KT 18/17 A3001 RMK A01 T01780166  RH  092%=      5-min Rain = 0.02
KAI1 252317Z 26018KT 18/17 A3002 RMK A01 T01770167  RH  094%=      5-min Rain = 0.01
KAI1 252318Z 26016KT 18/17 A3002 RMK A01 T01760168  RH  095%=      5-min Rain = 0.01
KAI1 252319Z 27010KT 18/17 A3001 RMK A01 T01760169  RH  096%=      5-min Rain = 0
KAI1 252320Z 30010KT 18/17 A30 RMK A01 T01760169  RH  096%=      5-min Rain = 0
KAI1 252321Z 30016G24KT 18/17 A2999 RMK A01 T01760169  RH  096%=      5-min Rain = 0
KAI1 252322Z 31021KT 18/17 A2998 RMK A01 T01750169  RH  096%=      5-min Rain = 0.01
KAI1 252323Z 30019G24KT 18/17 A2998 RMK A01 T01750169  RH  096%=      5-min Rain = 0
KAI1 252324Z 29019KT 17/17 A30 RMK A01 T01740169  RH  097%=      5-min Rain = 0
KAI1 252325Z 29018KT 17/17 A30 RMK A01 T01740169  RH  097%=      5-min Rain = 0
KAI1 252326Z 30016KT 17/17 A2999 RMK A01 T01740169  RH  097%=      5-min Rain = 0
KAI1 252327Z 32013KT 17/17 A2998 RMK A01 T01730168  RH  097%=      5-min Rain = 0
KAI1 252328Z 33006KT 17/17 A2998 RMK A01 T01730168  RH  097%=      5-min Rain = 0
KAI1 252329Z 31010KT 17/17 A2999 RMK A01 T01720168  RH  097%=      5-min Rain = 0
KAI1 252330Z 32012KT 17/17 A2998 RMK A01 T01720167  RH  097%=      5-min Rain = 0
KAI1 252331Z 34013KT 17/17 A2996 RMK A01 T01710166  RH  097%=      5-min Rain = 0
KAI1 252332Z 33011KT 17/17 A2997 RMK A01 T01710166  RH  097%=      5-min Rain = 0
KAI1 252333Z 33010KT 17/17 A2997 RMK A01 T01710167  RH  097%=      5-min Rain = 0.01
KAI1 252334Z 33010KT 17/17 A2998 RMK A01 T01710166  RH  097%=      5-min Rain = 0
KAI1 252335Z 36008KT 17/17 A2998 RMK A01 T01710165  RH  096%=      5-min Rain = 0
KAI1 252336Z 00008KT 17/16 A2998 RMK A01 T01710163  RH  095%=      5-min Rain = 0
KAI1 252337Z 02008KT 17/16 A2997 RMK A01 T01710162  RH  094%=      5-min Rain = 0
KAI1 252338Z 01007KT 17/16 A2997 RMK A01 T01710163  RH  095%=      5-min Rain = 0
KAI1 252339Z 00008KT 17/16 A2997 RMK A01 T01710163  RH  095%=      5-min Rain = 0
KAI1 252340Z 35010KT 17/16 A2996 RMK A01 T01710163  RH  096%=      5-min Rain = 0
KAI1 252341Z 36012KT 17/16 A2996 RMK A01 T01700163  RH  096%=      5-min Rain = 0.01
KAI1 252342Z 00012KT 17/16 A2996 RMK A01 T01700163  RH  096%=      5-min Rain = 0
KAI1 252343Z 00012KT 17/16 A2997 RMK A01 T01690164  RH  096%=      5-min Rain = 0
KAI1 252344Z 36013KT 17/17 A2997 RMK A01 T01700165  RH  097%=      5-min Rain = 0
KAI1 252345Z 34013KT 17/17 A2997 RMK A01 T01700165  RH  097%=      5-min Rain = 0
KAI1 252346Z 34015KT 17/16 A2997 RMK A01 T01700164  RH  097%=      5-min Rain = 0
KAI1 252347Z 33013KT 17/16 A2997 RMK A01 T01690163  RH  096%=      5-min Rain = 0.01
KAI1 252348Z 33015KT 17/16 A2997 RMK A01 T01690162  RH  096%=      5-min Rain = 0
KAI1 252349Z 33014KT 17/16 A2997 RMK A01 T01680161  RH  095%=      5-min Rain = 0
KAI1 252350Z 32014KT 17/16 A2998 RMK A01 T01680161  RH  095%=      5-min Rain = 0
KAI1 252351Z 32014KT 17/16 A2998 RMK A01 T01680161  RH  095%=      5-min Rain = 0
KAI1 252352Z 32012KT 17/16 A2998 RMK A01 T01680161  RH  095%=      5-min Rain = 0
KAI1 252353Z 33010KT 17/16 A2998 RMK A01 T01680161  RH  095%=      5-min Rain = 0
KAI1 252354Z 32007KT 17/16 A2998 RMK A01 T01680161  RH  095%=      5-min Rain = 0
KAI1 252355Z 30007KT 17/16 A2998 RMK A01 T01680161  RH  095%=      5-min Rain = 0
KAI1 252356Z 30007KT 17/16 A2999 RMK A01 T01680160  RH  095%=      5-min Rain = 0
KAI1 252357Z 30007KT 17/16 A2999 RMK A01 T01690161  RH  095%=      5-min Rain = 0
KAI1 252358Z 30009KT 17/16 A2999 RMK A01 T01700162  RH  095%=      5-min Rain = 0
KAI1 252359Z 30013KT 17/16 A2998 RMK A01 T01700162  RH  095%=      5-min Rain = 0
KAI1 260000Z 30014KT 17/16 A2998 RMK A01 T01710162  RH  095%=      5-min Rain = 0
KAI1 260001Z 30017KT 17/16 A2998 RMK A01 T01730163  RH  094%=      5-min Rain = 0
KAI1 260002Z 29018KT 18/16 A2998 RMK A01 T01750163  RH  092%=      5-min Rain = 0
KAI1 260003Z 28021G27KT 18/16 A2998 RMK A01 T01760161  RH  091%=      5-min Rain = 0
KAI1 260004Z 28020KT 18/16 A2998 RMK A01 T01760157  RH  089%=      5-min Rain = 0
KAI1 260005Z 27013G18KT 17/16 A2999 RMK A01 T01730155  RH  089%=      5-min Rain = 0
KAI1 260006Z 26009KT 17/15 A2999 RMK A01 T01700151  RH  089%=      5-min Rain = 0
KAI1 260007Z 26009KT 17/15 A2999 RMK A01 T01670149  RH  089%=      5-min Rain = 0
KAI1 260008Z 26010KT 17/15 A2999 RMK A01 T01650148  RH  090%=      5-min Rain = 0
KAI1 260009Z 26010KT 16/15 A2999 RMK A01 T01640148  RH  090%=      5-min Rain = 0
KAI1 260010Z 26007KT 16/15 A2999 RMK A01 T01640148  RH  090%=      5-min Rain = 0
KAI1 260011Z 24005KT 16/15 A2999 RMK A01 T01640148  RH  090%=      5-min Rain = 0
KAI1 260012Z 20004KT 16/15 A2999 RMK A01 T01640147  RH  090%=      5-min Rain = 0
KAI1 260013Z 18003KT 17/15 A2998 RMK A01 T01650148  RH  090%=      5-min Rain = 0
KAI1 260014Z 13001KT 17/15 A2997 RMK A01 T01650148  RH  090%=      5-min Rain = 0
KAI1 260015Z 10003KT 17/15 A2997 RMK A01 T01670151  RH  090%=      5-min Rain = 0
KAI1 260016Z 09002KT 17/15 A2996 RMK A01 T01680151  RH  090%=      5-min Rain = 0
KAI1 260017Z 12005KT 17/15 A2997 RMK A01 T01680151  RH  089%=      5-min Rain = 0
KAI1 260018Z 12009KT 17/15 A2997 RMK A01 T01690151  RH  089%=      5-min Rain = 0
KAI1 260019Z 14011KT 17/16 A2997 RMK A01 T01710155  RH  090%=      5-min Rain = 0
KAI1 260020Z 10013KT 17/16 A2996 RMK A01 T01730157  RH  090%=      5-min Rain = 0
KAI1 260021Z 09012KT 17/16 A2997 RMK A01 T01740157  RH  089%=      5-min Rain = 0
KAI1 260022Z 11011KT 17/16 A2997 RMK A01 T01730156  RH  089%=      5-min Rain = 0
KAI1 260023Z 10009KT 17/16 A2997 RMK A01 T01730155  RH  089%=      5-min Rain = 0
KAI1 260024Z 11008KT 17/16 A2997 RMK A01 T01740157  RH  090%=      5-min Rain = 0
KAI1 260025Z 10009KT 18/16 A2997 RMK A01 T01770160  RH  090%=      5-min Rain = 0
KAI1 260026Z 11008KT 18/16 A2997 RMK A01 T01790158  RH  088%=      5-min Rain = 0
KAI1 260027Z 11008KT 18/16 A2997 RMK A01 T01790158  RH  088%=      5-min Rain = 0
KAI1 260028Z 11008KT 18/16 A2997 RMK A01 T01790162  RH  090%=      5-min Rain = 0
KAI1 260029Z 12009KT 18/16 A2997 RMK A01 T01810161  RH  088%=      5-min Rain = 0
KAI1 260030Z 13009KT 18/16 A2997 RMK A01 T01830161  RH  087%=      5-min Rain = 0
KAI1 260031Z 13010KT 19/16 A2996 RMK A01 T01850161  RH  086%=      5-min Rain = 0
KAI1 260032Z 13011KT 19/16 A2996 RMK A01 T01880163  RH  086%=      5-min Rain = 0
KAI1 260033Z 14010KT 19/17 A2996 RMK A01 T01910165  RH  085%=      5-min Rain = 0
KAI1 260034Z 13009KT 19/17 A2996 RMK A01 T01940168  RH  085%=      5-min Rain = 0
KAI1 260035Z 13010KT 20/17 A2996 RMK A01 T01960169  RH  084%=      5-min Rain = 0
KAI1 260036Z 13010KT 20/17 A2996 RMK A01 T01970169  RH  083%=      5-min Rain = 0
KAI1 260037Z 13011KT 20/17 A2996 RMK A01 T01990172  RH  084%=      5-min Rain = 0
KAI1 260038Z 13011KT 20/17 A2996 RMK A01 T02010171  RH  083%=      5-min Rain = 0
KAI1 260039Z 13010KT 20/17 A2996 RMK A01 T02010171  RH  083%=      5-min Rain = 0
KAI1 260040Z 13010KT 20/17 A2996 RMK A01 T02010171  RH  083%=      5-min Rain = 0
KAI1 260041Z 12010KT 20/17 A2996 RMK A01 T02010173  RH  084%=      5-min Rain = 0
KAI1 260042Z 12010KT 20/17 A2996 RMK A01 T02010173  RH  084%=      5-min Rain = 0
KAI1 260043Z 12009KT 20/17 A2996 RMK A01 T02010172  RH  084%=      5-min Rain = 0
KAI1 260044Z 11010KT 20/17 A2996 RMK A01 T02000172  RH  084%=      5-min Rain = 0
KAI1 260045Z 11009KT 20/17 A2996 RMK A01 T01980170  RH  084%=      5-min Rain = 0
KAI1 260046Z 10008KT 20/17 A2996 RMK A01 T01960170  RH  085%=      5-min Rain = 0
KAI1 260047Z 10008KT 19/17 A2996 RMK A01 T01940169  RH  085%=      5-min Rain = 0
KAI1 260048Z 10008KT 19/17 A2996 RMK A01 T01920169  RH  086%=      5-min Rain = 0
KAI1 260049Z 10008KT 19/17 A2996 RMK A01 T01920170  RH  087%=      5-min Rain = 0
KAI1 260050Z 10008KT 19/17 A2996 RMK A01 T01920169  RH  087%=      5-min Rain = 0
KAI1 260051Z 10007KT 19/17 A2996 RMK A01 T01920170  RH  087%=      5-min Rain = 0
KAI1 260052Z 10006KT 19/17 A2996 RMK A01 T01930173  RH  088%=      5-min Rain = 0
KAI1 260053Z 10007KT 19/18 A2996 RMK A01 T01940175  RH  089%=      5-min Rain = 0
KAI1 260054Z 10007KT 20/18 A2997 RMK A01 T01950175  RH  088%=      5-min Rain = 0
KAI1 260055Z 10008KT 20/18 A2997 RMK A01 T01960175  RH  088%=      5-min Rain = 0
KAI1 260056Z 11008KT 20/18 A2997 RMK A01 T01970176  RH  088%=      5-min Rain = 0
KAI1 260057Z 10008KT 20/18 A2997 RMK A01 T01970176  RH  088%=      5-min Rain = 0
KAI1 260058Z 10007KT 20/18 A2997 RMK A01 T01980177  RH  087%=      5-min Rain = 0
KAI1 260059Z 10007KT 20/18 A2996 RMK A01 T01990178  RH  088%=      5-min Rain = 0
KAI1 260100Z 10006KT 20/18 A2997 RMK A01 T01990178  RH  088%=      5-min Rain = 0
KAI1 260101Z 10006KT 20/18 A2997 RMK A01 T01990179  RH  088%=      5-min Rain = 0
KAI1 260102Z 09006KT 20/18 A2997 RMK A01 T02000180  RH  088%=      5-min Rain = 0
KAI1 260103Z 09006KT 20/18 A2997 RMK A01 T02000180  RH  088%=      5-min Rain = 0
KAI1 260104Z 09007KT 20/18 A2997 RMK A01 T02000179  RH  088%=      5-min Rain = 0
KAI1 260105Z 09006KT 20/18 A2997 RMK A01 T02000177  RH  086%=      5-min Rain = 0
KAI1 260106Z 08007KT 20/18 A2997 RMK A01 T02000176  RH  086%=      5-min Rain = 0
KAI1 260107Z 08006KT 20/17 A2997 RMK A01 T02000174  RH  085%=      5-min Rain = 0
KAI1 260108Z 07006KT 20/17 A2997 RMK A01 T02000174  RH  085%=      5-min Rain = 0
KAI1 260109Z 08006KT 20/18 A2997 RMK A01 T02000175  RH  086%=      5-min Rain = 0
KAI1 260110Z 07006KT 20/18 A2997 RMK A01 T01990175  RH  086%=      5-min Rain = 0
KAI1 260111Z 08006KT 20/18 A2997 RMK A01 T01980175  RH  086%=      5-min Rain = 0
KAI1 260112Z 08006KT 20/17 A2997 RMK A01 T01980174  RH  086%=      5-min Rain = 0
KAI1 260113Z 08006KT 20/17 A2997 RMK A01 T01980173  RH  086%=      5-min Rain = 0
KAI1 260114Z 08006KT 20/17 A2996 RMK A01 T01980174  RH  086%=      5-min Rain = 0
KAI1 260115Z 08006KT 20/18 A2996 RMK A01 T01980175  RH  087%=      5-min Rain = 0
KAI1 260116Z 08006KT 20/18 A2996 RMK A01 T01980177  RH  088%=      5-min Rain = 0
KAI1 260117Z 09006KT 20/18 A2996 RMK A01 T01970177  RH  088%=      5-min Rain = 0
KAI1 260118Z 09006KT 20/18 A2996 RMK A01 T01970177  RH  088%=      5-min Rain = 0
KAI1 260119Z 09006KT 20/18 A2996 RMK A01 T01970178  RH  089%=      5-min Rain = 0
KAI1 260120Z 09007KT 20/18 A2996 RMK A01 T01970177  RH  088%=      5-min Rain = 0
KAI1 260121Z 09007KT 20/18 A2996 RMK A01 T01970176  RH  088%=      5-min Rain = 0
KAI1 260122Z 09006KT 20/18 A2996 RMK A01 T01970176  RH  088%=      5-min Rain = 0
KAI1 260123Z 09007KT 20/18 A2996 RMK A01 T01970176  RH  088%=      5-min Rain = 0
KAI1 260124Z 09007KT 20/18 A2996 RMK A01 T01960175  RH  088%=      5-min Rain = 0
KAI1 260125Z 09007KT 20/18 A2996 RMK A01 T01960175  RH  088%=      5-min Rain = 0
KAI1 260126Z 09008KT 20/17 A2996 RMK A01 T01950174  RH  088%=      5-min Rain = 0
KAI1 260127Z 09008KT 19/17 A2996 RMK A01 T01940173  RH  088%=      5-min Rain = 0
KAI1 260128Z 09008KT 19/17 A2996 RMK A01 T01940173  RH  088%=      5-min Rain = 0
KAI1 260129Z 09007KT 19/17 A2996 RMK A01 T01940174  RH  088%=      5-min Rain = 0
KAI1 260130Z 09007KT 19/17 A2996 RMK A01 T01930174  RH  089%=      5-min Rain = 0
KAI1 260131Z 09007KT 19/17 A2996 RMK A01 T01930174  RH  089%=      5-min Rain = 0
KAI1 260132Z 10008KT 19/18 A2996 RMK A01 T01930175  RH  089%=      5-min Rain = 0
KAI1 260133Z 10008KT 19/17 A2996 RMK A01 T01920174  RH  089%=      5-min Rain = 0
KAI1 260134Z 10008KT 19/17 A2996 RMK A01 T01930174  RH  089%=      5-min Rain = 0
KAI1 260135Z 10009KT 19/17 A2996 RMK A01 T01920174  RH  089%=      5-min Rain = 0
KAI1 260136Z 10008KT 19/17 A2996 RMK A01 T01920174  RH  089%=      5-min Rain = 0
KAI1 260137Z 10009KT 19/17 A2996 RMK A01 T01910174  RH  090%=      5-min Rain = 0
KAI1 260138Z 10009KT 19/17 A2996 RMK A01 T01910174  RH  090%=      5-min Rain = 0
KAI1 260139Z 10008KT 19/17 A2996 RMK A01 T01910174  RH  090%=      5-min Rain = 0
KAI1 260140Z 10009KT 19/17 A2996 RMK A01 T01900174  RH  091%=      5-min Rain = 0
KAI1 260141Z 10009KT 19/18 A2996 RMK A01 T01900175  RH  091%=      5-min Rain = 0
KAI1 260142Z 11009KT 19/17 A2996 RMK A01 T01890174  RH  091%=      5-min Rain = 0
KAI1 260143Z 11008KT 19/17 A2996 RMK A01 T01890174  RH  091%=      5-min Rain = 0
KAI1 260144Z 11008KT 19/17 A2996 RMK A01 T01890174  RH  091%=      5-min Rain = 0
KAI1 260145Z 11008KT 19/17 A2996 RMK A01 T01890174  RH  091%=      5-min Rain = 0
KAI1 260146Z 11008KT 19/17 A2996 RMK A01 T01890174  RH  091%=      5-min Rain = 0
KAI1 260147Z 12008KT 19/17 A2996 RMK A01 T01890174  RH  091%=      5-min Rain = 0
KAI1 260148Z 12007KT 19/17 A2996 RMK A01 T01890174  RH  091%=      5-min Rain = 0
KAI1 260149Z 11008KT 19/17 A2996 RMK A01 T01890174  RH  091%=      5-min Rain = 0
KAI1 260150Z 11008KT 19/18 A2996 RMK A01 T01900175  RH  091%=      5-min Rain = 0
KAI1 260151Z 11009KT 19/18 A2996 RMK A01 T01890175  RH  091%=      5-min Rain = 0
KAI1 260152Z 11009KT 19/18 A2996 RMK A01 T01900175  RH  091%=      5-min Rain = 0
KAI1 260153Z 11007KT 19/18 A2996 RMK A01 T01900175  RH  091%=      5-min Rain = 0
KAI1 260154Z 11007KT 19/18 A2996 RMK A01 T01900176  RH  091%=      5-min Rain = 0
KAI1 260155Z 12007KT 19/18 A2996 RMK A01 T01900176  RH  092%=      5-min Rain = 0
KAI1 260156Z 12006KT 19/18 A2996 RMK A01 T01900176  RH  092%=      5-min Rain = 0
KAI1 260157Z 12006KT 19/18 A2996 RMK A01 T01900176  RH  092%=      5-min Rain = 0
KAI1 260158Z 12007KT 19/18 A2996 RMK A01 T01900176  RH  092%=      5-min Rain = 0
KAI1 260159Z 12007KT 19/18 A2996 RMK A01 T01910177  RH  092%=      5-min Rain = 0
KAI1 260200Z 12007KT 19/18 A2996 RMK A01 T01910177  RH  092%=      5-min Rain = 0
KAI1 260201Z 12007KT 19/18 A2996 RMK A01 T01920178  RH  092%=      5-min Rain = 0
KAI1 260202Z 12006KT 19/18 A2997 RMK A01 T01920178  RH  092%=      5-min Rain = 0
KAI1 260203Z 12006KT 19/18 A2997 RMK A01 T01920178  RH  092%=      5-min Rain = 0
KAI1 260204Z 11006KT 19/18 A2997 RMK A01 T01920178  RH  092%=      5-min Rain = 0
KAI1 260205Z 11007KT 19/18 A2997 RMK A01 T01920179  RH  092%=      5-min Rain = 0
KAI1 260206Z 11007KT 19/18 A2996 RMK A01 T01920178  RH  092%=      5-min Rain = 0
KAI1 260207Z 11006KT 19/18 A2996 RMK A01 T01920179  RH  092%=      5-min Rain = 0
KAI1 260208Z 11006KT 19/18 A2997 RMK A01 T01920179  RH  092%=      5-min Rain = 0
KAI1 260209Z 11007KT 19/18 A2997 RMK A01 T01920179  RH  092%=      5-min Rain = 0
KAI1 260210Z 11007KT 19/18 A2997 RMK A01 T01930179  RH  092%=      5-min Rain = 0
KAI1 260211Z 11006KT 19/18 A2997 RMK A01 T01920179  RH  092%=      5-min Rain = 0
KAI1 260212Z 11006KT 19/18 A2997 RMK A01 T01920179  RH  092%=      5-min Rain = 0
KAI1 260213Z 11006KT 19/18 A2997 RMK A01 T01920179  RH  092%=      5-min Rain = 0
KAI1 260214Z 11007KT 19/18 A2997 RMK A01 T01920179  RH  092%=      5-min Rain = 0
KAI1 260215Z 11006KT 19/18 A2997 RMK A01 T01920180  RH  093%=      5-min Rain = 0
KAI1 260216Z 11007KT 19/18 A2997 RMK A01 T01920180  RH  093%=      5-min Rain = 0
KAI1 260217Z 12007KT 19/18 A2997 RMK A01 T01920180  RH  093%=      5-min Rain = 0
KAI1 260218Z 12006KT 19/18 A2997 RMK A01 T01930181  RH  093%=      5-min Rain = 0
KAI1 260219Z 12007KT 19/18 A2997 RMK A01 T01940181  RH  092%=      5-min Rain = 0
KAI1 260220Z 12007KT 19/18 A2997 RMK A01 T01940182  RH  092%=      5-min Rain = 0
KAI1 260221Z 12007KT 19/18 A2997 RMK A01 T01940182  RH  092%=      5-min Rain = 0
KAI1 260222Z 12007KT 20/18 A2997 RMK A01 T01950182  RH  092%=      5-min Rain = 0
KAI1 260223Z 12007KT 20/18 A2997 RMK A01 T01960182  RH  092%=      5-min Rain = 0
KAI1 260224Z 12007KT 20/18 A2997 RMK A01 T01960182  RH  092%=      5-min Rain = 0
KAI1 260225Z 12007KT 20/18 A2997 RMK A01 T01960182  RH  092%=      5-min Rain = 0
KAI1 260226Z 12007KT 20/18 A2997 RMK A01 T01960183  RH  092%=      5-min Rain = 0
KAI1 260227Z 12007KT 20/18 A2997 RMK A01 T01960183  RH  092%=      5-min Rain = 0
KAI1 260228Z 12007KT 20/18 A2997 RMK A01 T01960182  RH  092%=      5-min Rain = 0
KAI1 260229Z 12008KT 20/18 A2997 RMK A01 T01950183  RH  092%=      5-min Rain = 0
KAI1 260230Z 12007KT 20/18 A2997 RMK A01 T01960183  RH  092%=      5-min Rain = 0
KAI1 260231Z 12008KT 20/18 A2997 RMK A01 T01950182  RH  092%=      5-min Rain = 0
KAI1 260232Z 11008KT 20/18 A2997 RMK A01 T01950182  RH  092%=      5-min Rain = 0
KAI1 260233Z 11008KT 20/18 A2997 RMK A01 T01950182  RH  092%=      5-min Rain = 0
KAI1 260234Z 12008KT 20/18 A2997 RMK A01 T01950182  RH  092%=      5-min Rain = 0
KAI1 260235Z 12008KT 19/18 A2997 RMK A01 T01940182  RH  092%=      5-min Rain = 0
KAI1 260236Z 12008KT 19/18 A2997 RMK A01 T01940181  RH  092%=      5-min Rain = 0
KAI1 260237Z 12007KT 19/18 A2997 RMK A01 T01940182  RH  092%=      5-min Rain = 0
KAI1 260238Z 12007KT 19/18 A2997 RMK A01 T01940181  RH  092%=      5-min Rain = 0
KAI1 260239Z 12008KT 19/18 A2997 RMK A01 T01940181  RH  092%=      5-min Rain = 0
KAI1 260240Z 12008KT 19/18 A2997 RMK A01 T01940181  RH  092%=      5-min Rain = 0
KAI1 260241Z 12008KT 19/18 A2997 RMK A01 T01930181  RH  093%=      5-min Rain = 0
KAI1 260242Z 12007KT 19/18 A2997 RMK A01 T01930181  RH  092%=      5-min Rain = 0
KAI1 260243Z 12008KT 19/18 A2997 RMK A01 T01940181  RH  092%=      5-min Rain = 0
KAI1 260244Z 13007KT 19/18 A2997 RMK A01 T01940181  RH  092%=      5-min Rain = 0
KAI1 260245Z 13008KT 19/18 A2997 RMK A01 T01940181  RH  092%=      5-min Rain = 0
KAI1 260246Z 13008KT 19/18 A2997 RMK A01 T01940181  RH  092%=      5-min Rain = 0
KAI1 260247Z 13008KT 20/18 A2997 RMK A01 T01950181  RH  092%=      5-min Rain = 0
KAI1 260248Z 14008KT 20/18 A2997 RMK A01 T01950181  RH  092%=      5-min Rain = 0
KAI1 260249Z 14009KT 20/18 A2997 RMK A01 T01950182  RH  092%=      5-min Rain = 0
KAI1 260250Z 14009KT 20/18 A2997 RMK A01 T01950182  RH  092%=      5-min Rain = 0
KAI1 260251Z 14010KT 20/18 A2997 RMK A01 T01950182  RH  092%=      5-min Rain = 0
KAI1 260252Z 15009KT 20/18 A2997 RMK A01 T01950182  RH  092%=      5-min Rain = 0
KAI1 260253Z 15010KT 20/18 A2997 RMK A01 T01950182  RH  092%=      5-min Rain = 0
KAI1 260254Z 15010KT 20/18 A2997 RMK A01 T01950182  RH  092%=      5-min Rain = 0
KAI1 260255Z 15010KT 20/18 A2997 RMK A01 T01950182  RH  092%=      5-min Rain = 0
KAI1 260256Z 15010KT 20/18 A2997 RMK A01 T01950183  RH  092%=      5-min Rain = 0
KAI1 260257Z 15010KT 20/18 A2997 RMK A01 T01960183  RH  092%=      5-min Rain = 0
KAI1 260258Z 14010KT 20/18 A2997 RMK A01 T01950182  RH  092%=      5-min Rain = 0
KAI1 260259Z 14009KT 20/18 A2997 RMK A01 T01950183  RH  092%=      5-min Rain = 0
KAI1 260300Z 14009KT 20/18 A2997 RMK A01 T01950182  RH  092%=      5-min Rain = 0
KAI1 260301Z 14009KT 20/18 A2997 RMK A01 T01950182  RH  092%=      5-min Rain = 0
KAI1 260302Z 14009KT 19/18 A2997 RMK A01 T01940182  RH  092%=      5-min Rain = 0
KAI1 260303Z 15009KT 19/18 A2997 RMK A01 T01940182  RH  093%=      5-min Rain = 0
KAI1 260304Z 15009KT 19/18 A2997 RMK A01 T01940182  RH  093%=      5-min Rain = 0
KAI1 260305Z 15009KT 19/18 A2997 RMK A01 T01940182  RH  093%=      5-min Rain = 0
KAI1 260306Z 15010KT 19/18 A2997 RMK A01 T01930182  RH  093%=      5-min Rain = 0
KAI1 260307Z 15010KT 19/18 A2997 RMK A01 T01930182  RH  093%=      5-min Rain = 0
KAI1 260308Z 15011KT 19/18 A2997 RMK A01 T01940182  RH  093%=      5-min Rain = 0
KAI1 260309Z 15011KT 19/18 A2997 RMK A01 T01930182  RH  093%=      5-min Rain = 0
KAI1 260310Z 15011KT 19/18 A2996 RMK A01 T01940183  RH  093%=      5-min Rain = 0
KAI1 260311Z 15011KT 20/18 A2996 RMK A01 T01950183  RH  093%=      5-min Rain = 0
KAI1 260312Z 15011KT 20/18 A2996 RMK A01 T01960184  RH  092%=      5-min Rain = 0
KAI1 260313Z 15011KT 20/18 A2996 RMK A01 T01970183  RH  092%=      5-min Rain = 0
KAI1 260314Z 15011KT 20/18 A2996 RMK A01 T01980184  RH  092%=      5-min Rain = 0
KAI1 260315Z 15011KT 20/18 A2996 RMK A01 T01980184  RH  091%=      5-min Rain = 0
KAI1 260316Z 15011KT 20/18 A2996 RMK A01 T01990184  RH  091%=      5-min Rain = 0
KAI1 260317Z 15011KT 20/18 A2996 RMK A01 T01980184  RH  091%=      5-min Rain = 0
KAI1 260318Z 15011KT 20/18 A2996 RMK A01 T01990184  RH  091%=      5-min Rain = 0
KAI1 260319Z 15011KT 20/18 A2996 RMK A01 T01990184  RH  091%=      5-min Rain = 0
KAI1 260320Z 15011KT 20/19 A2996 RMK A01 T02000185  RH  091%=      5-min Rain = 0
KAI1 260321Z 15012KT 20/19 A2996 RMK A01 T02000185  RH  091%=      5-min Rain = 0
KAI1 260322Z 15013KT 20/19 A2996 RMK A01 T02010185  RH  091%=      5-min Rain = 0
KAI1 260323Z 15012KT 20/19 A2996 RMK A01 T02010185  RH  091%=      5-min Rain = 0
KAI1 260324Z 15012KT 20/19 A2996 RMK A01 T02020186  RH  090%=      5-min Rain = 0
KAI1 260325Z 15012KT 20/19 A2996 RMK A01 T02030186  RH  090%=      5-min Rain = 0
KAI1 260326Z 15012KT 20/19 A2996 RMK A01 T02030186  RH  090%=      5-min Rain = 0
KAI1 260327Z 15012KT 20/19 A2996 RMK A01 T02030186  RH  090%=      5-min Rain = 0
KAI1 260328Z 15012KT 20/19 A2996 RMK A01 T02030185  RH  090%=      5-min Rain = 0
KAI1 260329Z 15011KT 20/19 A2996 RMK A01 T02030186  RH  090%=      5-min Rain = 0
KAI1 260330Z 15011KT 20/19 A2996 RMK A01 T02030186  RH  090%=      5-min Rain = 0
KAI1 260331Z 15011KT 20/19 A2996 RMK A01 T02030186  RH  090%=      5-min Rain = 0
KAI1 260332Z 16011KT 20/19 A2996 RMK A01 T02030186  RH  090%=      5-min Rain = 0
KAI1 260333Z 15011KT 20/19 A2996 RMK A01 T02030186  RH  090%=      5-min Rain = 0
KAI1 260334Z 15011KT 20/19 A2996 RMK A01 T02030186  RH  090%=      5-min Rain = 0
KAI1 260335Z 15010KT 20/19 A2996 RMK A01 T02030186  RH  090%=      5-min Rain = 0
KAI1 260336Z 16010KT 20/19 A2996 RMK A01 T02030186  RH  090%=      5-min Rain = 0
KAI1 260337Z 15011KT 20/19 A2996 RMK A01 T02030186  RH  090%=      5-min Rain = 0
KAI1 260338Z 16010KT 20/19 A2996 RMK A01 T02030186  RH  090%=      5-min Rain = 0
KAI1 260339Z 15011KT 20/19 A2996 RMK A01 T02030186  RH  090%=      5-min Rain = 0
KAI1 260340Z 16011KT 20/19 A2996 RMK A01 T02030186  RH  090%=      5-min Rain = 0
KAI1 260341Z 16012KT 20/19 A2996 RMK A01 T02030186  RH  090%=      5-min Rain = 0
KAI1 260342Z 16011KT 20/19 A2996 RMK A01 T02030186  RH  090%=      5-min Rain = 0
KAI1 260343Z 16010KT 20/19 A2996 RMK A01 T02040186  RH  090%=      5-min Rain = 0
KAI1 260344Z 16011KT 20/19 A2996 RMK A01 T02030186  RH  090%=      5-min Rain = 0
KAI1 260345Z 16011KT 20/19 A2996 RMK A01 T02040187  RH  090%=      5-min Rain = 0
KAI1 260346Z 17011KT 20/19 A2996 RMK A01 T02040186  RH  090%=      5-min Rain = 0
KAI1 260347Z 17011KT 20/19 A2996 RMK A01 T02040186  RH  090%=      5-min Rain = 0
KAI1 260348Z 17011KT 20/19 A2996 RMK A01 T02040186  RH  090%=      5-min Rain = 0
KAI1 260349Z 17011KT 20/19 A2996 RMK A01 T02040187  RH  090%=      5-min Rain = 0
KAI1 260350Z 17011KT 20/19 A2996 RMK A01 T02040186  RH  090%=      5-min Rain = 0
KAI1 260351Z 17011KT 20/19 A2996 RMK A01 T02030186  RH  090%=      5-min Rain = 0
KAI1 260352Z 17012KT 20/19 A2996 RMK A01 T02040186  RH  090%=      5-min Rain = 0
KAI1 260353Z 17012KT 20/19 A2996 RMK A01 T02040186  RH  090%=      5-min Rain = 0
KAI1 260354Z 16012KT 20/19 A2996 RMK A01 T02040186  RH  090%=      5-min Rain = 0
KAI1 260355Z 16012KT 20/19 A2996 RMK A01 T02040186  RH  089%=      5-min Rain = 0
KAI1 260356Z 16012KT 20/19 A2996 RMK A01 T02040186  RH  089%=      5-min Rain = 0
KAI1 260357Z 16013KT 20/19 A2996 RMK A01 T02040186  RH  089%=      5-min Rain = 0
KAI1 260358Z 16012KT 21/19 A2996 RMK A01 T02050186  RH  089%=      5-min Rain = 0
KAI1 260359Z 16013KT 20/19 A2996 RMK A01 T02040186  RH  089%=      5-min Rain = 0
KAI1 260400Z 16013KT 21/19 A2996 RMK A01 T02050186  RH  089%=      5-min Rain = 0
KAI1 260401Z 16014KT 21/19 A2996 RMK A01 T02050186  RH  089%=      5-min Rain = 0
KAI1 260402Z 16014KT 21/19 A2996 RMK A01 T02050186  RH  089%=      5-min Rain = 0
KAI1 260403Z 16014KT 21/19 A2996 RMK A01 T02060186  RH  089%=      5-min Rain = 0
KAI1 260404Z 16015KT 21/19 A2995 RMK A01 T02060186  RH  088%=      5-min Rain = 0
KAI1 260405Z 16014KT 21/19 A2996 RMK A01 T02070186  RH  088%=      5-min Rain = 0
KAI1 260406Z 16014KT 21/19 A2996 RMK A01 T02070186  RH  088%=      5-min Rain = 0
KAI1 260407Z 16014KT 21/19 A2995 RMK A01 T02060186  RH  088%=      5-min Rain = 0
KAI1 260408Z 16014KT 21/19 A2995 RMK A01 T02060186  RH  088%=      5-min Rain = 0
KAI1 260409Z 16014KT 21/19 A2995 RMK A01 T02060186  RH  088%=      5-min Rain = 0
KAI1 260410Z 16015KT 21/19 A2995 RMK A01 T02060186  RH  088%=      5-min Rain = 0
KAI1 260411Z 16015KT 21/19 A2995 RMK A01 T02070187  RH  088%=      5-min Rain = 0
KAI1 260412Z 16015KT 21/19 A2995 RMK A01 T02060187  RH  088%=      5-min Rain = 0
KAI1 260413Z 16015KT 21/19 A2995 RMK A01 T02060187  RH  088%=      5-min Rain = 0
KAI1 260414Z 16015KT 21/19 A2995 RMK A01 T02060186  RH  088%=      5-min Rain = 0
KAI1 260415Z 16015KT 21/19 A2995 RMK A01 T02060186  RH  088%=      5-min Rain = 0
KAI1 260416Z 16014KT 21/19 A2996 RMK A01 T02070186  RH  088%=      5-min Rain = 0
KAI1 260417Z 16015KT 21/19 A2996 RMK A01 T02070186  RH  088%=      5-min Rain = 0
KAI1 260418Z 16014KT 21/19 A2996 RMK A01 T02070186  RH  088%=      5-min Rain = 0
KAI1 260419Z 16015KT 21/19 A2996 RMK A01 T02060186  RH  088%=      5-min Rain = 0
KAI1 260420Z 16014KT 21/19 A2996 RMK A01 T02060186  RH  088%=      5-min Rain = 0
KAI1 260421Z 16014KT 21/19 A2996 RMK A01 T02070186  RH  088%=      5-min Rain = 0
KAI1 260422Z 16013KT 21/19 A2996 RMK A01 T02060186  RH  088%=      5-min Rain = 0
KAI1 260423Z 16014KT 21/19 A2996 RMK A01 T02060186  RH  088%=      5-min Rain = 0
KAI1 260424Z 16013KT 21/19 A2996 RMK A01 T02050186  RH  089%=      5-min Rain = 0
KAI1 260425Z 17013KT 20/19 A2996 RMK A01 T02040186  RH  089%=      5-min Rain = 0
KAI1 260426Z 16013KT 20/19 A2996 RMK A01 T02040186  RH  089%=      5-min Rain = 0
KAI1 260427Z 16013KT 20/19 A2996 RMK A01 T02040186  RH  089%=      5-min Rain = 0
KAI1 260428Z 17013KT 20/19 A2996 RMK A01 T02040186  RH  089%=      5-min Rain = 0
KAI1 260429Z 17013KT 20/19 A2996 RMK A01 T02030185  RH  090%=      5-min Rain = 0
KAI1 260430Z 16012KT 20/19 A2996 RMK A01 T02030186  RH  090%=      5-min Rain = 0
KAI1 260431Z 16012KT 20/19 A2996 RMK A01 T02030185  RH  090%=      5-min Rain = 0
KAI1 260432Z 17011KT 20/19 A2996 RMK A01 T02020185  RH  090%=      5-min Rain = 0
KAI1 260433Z 17011KT 20/19 A2996 RMK A01 T02020185  RH  090%=      5-min Rain = 0
KAI1 260434Z 17010KT 20/19 A2996 RMK A01 T02020185  RH  090%=      5-min Rain = 0
KAI1 260435Z 17011KT 20/19 A2996 RMK A01 T02020185  RH  090%=      5-min Rain = 0
KAI1 260436Z 17010KT 20/19 A2996 RMK A01 T02010185  RH  090%=      5-min Rain = 0
KAI1 260437Z 17009KT 20/19 A2997 RMK A01 T02020185  RH  090%=      5-min Rain = 0
KAI1 260438Z 17009KT 20/19 A2997 RMK A01 T02020185  RH  090%=      5-min Rain = 0
KAI1 260439Z 17010KT 20/19 A2997 RMK A01 T02010185  RH  090%=      5-min Rain = 0
KAI1 260440Z 17008KT 20/19 A2997 RMK A01 T02010185  RH  090%=      5-min Rain = 0
KAI1 260441Z 17009KT 20/19 A2997 RMK A01 T02010185  RH  090%=      5-min Rain = 0
KAI1 260442Z 17009KT 20/18 A2997 RMK A01 T02000184  RH  090%=      5-min Rain = 0
KAI1 260443Z 17008KT 20/18 A2997 RMK A01 T02000184  RH  090%=      5-min Rain = 0
KAI1 260444Z 17008KT 20/18 A2997 RMK A01 T02000184  RH  090%=      5-min Rain = 0
KAI1 260445Z 17009KT 20/18 A2997 RMK A01 T02000184  RH  091%=      5-min Rain = 0
KAI1 260446Z 16009KT 20/18 A2997 RMK A01 T02000184  RH  090%=      5-min Rain = 0
KAI1 260447Z 16010KT 20/18 A2997 RMK A01 T01990184  RH  091%=      5-min Rain = 0
KAI1 260448Z 16010KT 20/18 A2997 RMK A01 T01990184  RH  091%=      5-min Rain = 0
KAI1 260449Z 16010KT 20/18 A2997 RMK A01 T01990184  RH  091%=      5-min Rain = 0
KAI1 260450Z 16011KT 20/18 A2997 RMK A01 T01990184  RH  091%=      5-min Rain = 0
KAI1 260451Z 16010KT 20/18 A2997 RMK A01 T01990184  RH  091%=      5-min Rain = 0
KAI1 260452Z 16010KT 20/18 A2997 RMK A01 T01990184  RH  091%=      5-min Rain = 0
KAI1 260453Z 16010KT 20/18 A2997 RMK A01 T01990183  RH  091%=      5-min Rain = 0
KAI1 260454Z 16010KT 20/18 A2997 RMK A01 T01980184  RH  091%=      5-min Rain = 0
KAI1 260455Z 17009KT 20/18 A2997 RMK A01 T01980184  RH  091%=      5-min Rain = 0
KAI1 260456Z 16009KT 20/18 A2997 RMK A01 T01980184  RH  091%=      5-min Rain = 0
KAI1 260457Z 17009KT 20/18 A2997 RMK A01 T01980183  RH  092%=      5-min Rain = 0
KAI1 260458Z 17009KT 20/18 A2997 RMK A01 T01980183  RH  091%=      5-min Rain = 0
KAI1 260459Z 17009KT 20/18 A2997 RMK A01 T01970183  RH  092%=      5-min Rain = 0

Page generated in 0.4207 seconds.